VIR359 VABB-EGLL

Flight info

Callsign VIR359
Flight time N/A
Altitude 34000
Route RAXET2A BISET P751 LEGEN N563 REXOD L883 UMILA N569 TOKRA DCT MEDPO DCT BOSOB DCT ITRUX Y511 DANOM/N0502F360 Y511 PMA Z712 WEJ L677 CVO L617 TANSA/N0486F380 UL613 YNN UL611 TUMBO DCT RODON DCT VAKSU DCT ROTAR DCT SAFFA DCT ELMUR DCT RIPUS DCT DITON DCT HOC DCT LUL DCT RLP DCT ROTSI DCT KOTUN DCT NINAL DCT ABNUR DCT DIMAL DCT ALESO ALESO1H
Aircraft A35K/H-SDE2E3GHIJ3J4J5LM1ORWXY/LB1D1

Departure

Time 2026-04-29 22:16
Airport Chhatrapati Shivaji Maharaj International Airport (VABB)

Arrival

Time N/A
Airport London Heathrow Airport (EGLL)
Time Latitude Longitude Altitude Speed Heading
2026-04-29 21:53 19.09335 72.87024 55 ft 0 kts 60°
2026-04-29 22:06 19.09333 72.87020 55 ft 3 kts 60°
2026-04-29 22:07 19.09319 72.86995 47 ft 4 kts 60°
2026-04-29 22:07 19.09309 72.86974 47 ft 4 kts 76°
2026-04-29 22:07 19.09309 72.86948 47 ft 4 kts 111°
2026-04-29 22:07 19.09323 72.86924 47 ft 4 kts 133°
2026-04-29 22:08 19.09337 72.86909 47 ft 0 kts 135°
2026-04-29 22:09 19.09336 72.86909 55 ft 0 kts 135°
2026-04-29 22:10 19.09331 72.86915 50 ft 2 kts 134°
2026-04-29 22:10 19.09326 72.86920 51 ft 4 kts 134°
2026-04-29 22:10 19.09293 72.86955 51 ft 10 kts 135°
2026-04-29 22:10 19.09239 72.87018 47 ft 12 kts 118°
2026-04-29 22:11 19.09216 72.87071 52 ft 6 kts 148°
2026-04-29 22:11 19.09174 72.87079 50 ft 6 kts 166°
2026-04-29 22:11 19.09145 72.87110 50 ft 6 kts 113°
2026-04-29 22:11 19.09135 72.87201 55 ft 19 kts 92°
2026-04-29 22:12 19.09084 72.87270 48 ft 14 kts 152°
2026-04-29 22:12 19.09050 72.87373 51 ft 16 kts 87°
2026-04-29 22:12 19.09052 72.87490 50 ft 16 kts 88°
2026-04-29 22:12 19.09055 72.87607 49 ft 16 kts 89°
2026-04-29 22:13 19.09056 72.87729 49 ft 17 kts 89°
2026-04-29 22:13 19.09058 72.87857 49 ft 18 kts 89°
2026-04-29 22:13 19.09060 72.87976 54 ft 11 kts 89°
2026-04-29 22:13 19.09027 72.88042 49 ft 11 kts 154°
2026-04-29 22:14 19.08946 72.88056 49 ft 13 kts 174°
2026-04-29 22:14 19.08896 72.88029 49 ft 7 kts 237°
2026-04-29 22:14 19.08888 72.87990 48 ft 5 kts 269°
2026-04-29 22:14 19.08888 72.87949 51 ft 6 kts 269°
2026-04-29 22:15 19.08887 72.87886 53 ft 19 kts 269°
2026-04-29 22:15 19.08882 72.87519 48 ft 80 kts 269°
2026-04-29 22:15 19.08872 72.86732 52 ft 133 kts 268°
2026-04-29 22:15 19.08847 72.85588 61 ft 177 kts 266°
2026-04-29 22:16 19.08792 72.84342 690 ft 164 kts 265°
2026-04-29 22:16 19.08762 72.83130 1141 ft 165 kts 270°
2026-04-29 22:16 19.08824 72.81924 1615 ft 163 kts 275°
2026-04-29 22:16 19.08895 72.80703 1874 ft 173 kts 269°
2026-04-29 22:17 19.08872 72.79837 2005 ft 183 kts 267°
2026-04-29 22:17 19.08799 72.77953 2311 ft 204 kts 268°
2026-04-29 22:17 19.08749 72.76389 2556 ft 221 kts 268°
2026-04-29 22:17 19.08766 72.74696 2766 ft 240 kts 274°
2026-04-29 22:18 19.08933 72.72895 3112 ft 251 kts 277°
2026-04-29 22:18 19.09136 72.71046 3630 ft 255 kts 277°
2026-04-29 22:18 19.09343 72.69175 4177 ft 258 kts 277°
2026-04-29 22:18 19.09551 72.67275 4744 ft 260 kts 277°
2026-04-29 22:19 19.09691 72.65988 5127 ft 261 kts 277°
2026-04-29 22:19 19.09897 72.64085 5734 ft 261 kts 277°
2026-04-29 22:19 19.10102 72.62183 6347 ft 260 kts 278°
2026-04-29 22:19 19.10308 72.60276 6869 ft 263 kts 277°
2026-04-29 22:20 19.10517 72.58344 7365 ft 266 kts 277°
2026-04-29 22:20 19.10727 72.56389 7915 ft 269 kts 276°
2026-04-29 22:20 19.10938 72.54420 8488 ft 270 kts 276°
2026-04-29 22:20 19.11148 72.52461 9063 ft 272 kts 275°
2026-04-29 22:21 19.11362 72.50461 9659 ft 275 kts 275°
2026-04-29 22:21 19.11578 72.48433 10103 ft 283 kts 275°
2026-04-29 22:21 19.11803 72.46310 10340 ft 297 kts 275°
2026-04-29 22:21 19.12040 72.44082 10563 ft 312 kts 275°
2026-04-29 22:22 19.12288 72.41754 10787 ft 325 kts 276°
2026-04-29 22:22 19.12546 72.39333 11014 ft 338 kts 276°
2026-04-29 22:22 19.12813 72.36823 11223 ft 349 kts 276°
2026-04-29 22:22 19.13088 72.34232 11422 ft 360 kts 276°
2026-04-29 22:23 19.13372 72.31561 11612 ft 370 kts 276°
2026-04-29 22:23 19.13663 72.28820 11780 ft 379 kts 276°
2026-04-29 22:23 19.13954 72.26062 12037 ft 385 kts 276°
2026-04-29 22:23 19.14257 72.23199 12364 ft 389 kts 276°
2026-04-29 22:24 19.14554 72.20383 12691 ft 392 kts 276°
2026-04-29 22:24 19.14857 72.17507 13028 ft 395 kts 277°
2026-04-29 22:24 19.15161 72.14613 13353 ft 397 kts 277°
2026-04-29 22:24 19.15400 72.11694 13676 ft 400 kts 272°
2026-04-29 22:25 19.15259 72.08742 13959 ft 404 kts 263°
2026-04-29 22:25 19.14659 72.05836 14254 ft 407 kts 256°
2026-04-29 22:25 19.13889 72.02936 14542 ft 410 kts 255°
2026-04-29 22:25 19.13102 72.00033 14835 ft 412 kts 255°
2026-04-29 22:26 19.12313 71.97113 15123 ft 414 kts 256°
2026-04-29 22:26 19.11524 71.94175 15399 ft 416 kts 256°
2026-04-29 22:26 19.10732 71.91218 15694 ft 419 kts 256°
2026-04-29 22:26 19.09935 71.88243 15956 ft 422 kts 256°
2026-04-29 22:27 19.09135 71.85251 16243 ft 424 kts 256°
2026-04-29 22:27 19.08331 71.82247 16538 ft 426 kts 256°
2026-04-29 22:27 19.07522 71.79224 16833 ft 428 kts 256°
2026-04-29 22:27 19.06709 71.76189 17130 ft 430 kts 256°
2026-04-29 22:28 19.05890 71.73136 17419 ft 433 kts 256°
2026-04-29 22:28 19.05068 71.70068 17724 ft 435 kts 256°
2026-04-29 22:28 19.04239 71.66978 18016 ft 437 kts 256°
2026-04-29 22:28 19.03406 71.63878 18280 ft 440 kts 256°
2026-04-29 22:29 19.02568 71.60762 18557 ft 441 kts 256°
2026-04-29 22:29 19.01740 71.57684 18824 ft 443 kts 256°
2026-04-29 22:29 19.00895 71.54543 19109 ft 444 kts 256°
2026-04-29 22:29 19.00049 71.51405 19400 ft 445 kts 256°
2026-04-29 22:30 18.99200 71.48254 19693 ft 447 kts 256°
2026-04-29 22:30 18.98346 71.45089 19981 ft 448 kts 256°
2026-04-29 22:30 18.97477 71.41870 20272 ft 450 kts 256°
2026-04-29 22:30 18.96618 71.38688 20588 ft 451 kts 256°
2026-04-29 22:31 18.95753 71.35490 20915 ft 453 kts 256°
2026-04-29 22:31 18.94897 71.32326 21222 ft 455 kts 256°
2026-04-29 22:31 18.94024 71.29101 21558 ft 457 kts 256°
2026-04-29 22:31 18.93148 71.25869 21880 ft 459 kts 256°
2026-04-29 22:32 18.92268 71.22624 22226 ft 460 kts 256°
2026-04-29 22:32 18.91383 71.19359 22561 ft 462 kts 256°
2026-04-29 22:32 18.90497 71.16099 22898 ft 464 kts 256°
2026-04-29 22:32 18.89602 71.12804 23232 ft 466 kts 256°
2026-04-29 22:33 18.88706 71.09509 23546 ft 468 kts 256°
2026-04-29 22:33 18.87802 71.06189 23836 ft 470 kts 256°
2026-04-29 22:33 18.86899 71.02872 24127 ft 471 kts 256°
2026-04-29 22:33 18.85990 70.99540 24418 ft 473 kts 256°
2026-04-29 22:34 18.85079 70.96199 24721 ft 474 kts 256°
2026-04-29 22:34 18.84163 70.92845 25018 ft 476 kts 256°
2026-04-29 22:34 18.83244 70.89482 25329 ft 478 kts 256°
2026-04-29 22:34 18.82334 70.86152 25623 ft 479 kts 256°
2026-04-29 22:35 18.81407 70.82765 25936 ft 481 kts 256°
2026-04-29 22:35 18.80477 70.79368 26239 ft 483 kts 256°
2026-04-29 22:35 18.79540 70.75951 26569 ft 485 kts 256°
2026-04-29 22:35 18.78602 70.72528 26866 ft 487 kts 256°
2026-04-29 22:36 18.77658 70.69089 27173 ft 489 kts 256°
2026-04-29 22:36 18.76710 70.65639 27478 ft 491 kts 256°
2026-04-29 22:36 18.75758 70.62174 27762 ft 493 kts 256°
2026-04-29 22:36 18.74802 70.58699 28059 ft 494 kts 256°
2026-04-29 22:37 18.73839 70.55202 28344 ft 496 kts 256°
2026-04-29 22:37 18.72875 70.51703 28597 ft 498 kts 256°
2026-04-29 22:37 18.71906 70.48191 28928 ft 498 kts 256°
2026-04-29 22:37 18.70938 70.44684 29366 ft 496 kts 256°
2026-04-29 22:38 18.69973 70.41196 29800 ft 494 kts 256°
2026-04-29 22:38 18.69011 70.37715 30119 ft 494 kts 256°
2026-04-29 22:38 18.68049 70.34236 30306 ft 495 kts 256°
2026-04-29 22:38 18.67082 70.30741 30522 ft 496 kts 256°
2026-04-29 22:39 18.66114 70.27250 30764 ft 497 kts 256°
2026-04-29 22:39 18.65142 70.23743 30985 ft 497 kts 256°
2026-04-29 22:39 18.64170 70.20241 31221 ft 498 kts 256°
2026-04-29 22:39 18.63196 70.16734 31419 ft 499 kts 256°
2026-04-29 22:40 18.62220 70.13220 31633 ft 499 kts 256°
2026-04-29 22:40 18.61242 70.09706 31864 ft 500 kts 256°
2026-04-29 22:40 18.60264 70.06194 32086 ft 500 kts 256°
2026-04-29 22:40 18.59295 70.02714 32293 ft 500 kts 256°
2026-04-29 22:41 18.58301 69.99149 32509 ft 501 kts 256°
2026-04-29 22:41 18.57319 69.95630 32733 ft 501 kts 256°
2026-04-29 22:41 18.56334 69.92104 32919 ft 501 kts 256°
2026-04-29 22:41 18.55349 69.88578 33122 ft 502 kts 256°
2026-04-29 22:42 18.54361 69.85046 33307 ft 502 kts 256°
2026-04-29 22:42 18.53371 69.81510 33493 ft 503 kts 256°
2026-04-29 22:42 18.52380 69.77969 33692 ft 503 kts 256°
2026-04-29 22:42 18.51401 69.74480 33808 ft 504 kts 256°
2026-04-29 22:43 18.50410 69.70947 33815 ft 503 kts 256°
2026-04-29 22:43 18.48423 69.63872 33812 ft 503 kts 256°
2026-04-29 22:44 18.46435 69.56806 33810 ft 503 kts 256°
2026-04-29 22:44 18.44442 69.49732 33812 ft 503 kts 256°
2026-04-29 22:45 18.42445 69.42656 33806 ft 503 kts 256°
2026-04-29 22:45 18.40449 69.35593 33813 ft 503 kts 256°
2026-04-29 22:46 18.38457 69.28523 33811 ft 503 kts 257°
2026-04-29 22:46 18.36878 69.21364 33814 ft 502 kts 261°
2026-04-29 22:47 18.35503 69.14162 33811 ft 502 kts 261°
2026-04-29 22:47 18.34071 69.06959 33813 ft 502 kts 260°
2026-04-29 22:48 18.32592 68.99818 33813 ft 503 kts 259°
2026-04-29 22:48 18.31082 68.92637 33815 ft 503 kts 259°
2026-04-29 22:49 18.29569 68.85458 33812 ft 503 kts 259°
2026-04-29 22:49 18.28055 68.78272 33815 ft 503 kts 259°
2026-04-29 22:50 18.26538 68.71083 33815 ft 503 kts 259°
2026-04-29 22:50 18.25020 68.63902 33816 ft 503 kts 259°
2026-04-29 22:51 18.23498 68.56714 33814 ft 503 kts 259°
2026-04-29 22:51 18.21210 68.45936 33814 ft 504 kts 259°
2026-04-29 22:52 18.19681 68.38749 33816 ft 504 kts 259°
2026-04-29 22:52 18.18148 68.31558 33815 ft 504 kts 259°
2026-04-29 22:53 18.16612 68.24371 33812 ft 504 kts 259°
2026-04-29 22:53 18.15076 68.17191 33814 ft 503 kts 259°
2026-04-29 22:54 18.13537 68.10018 33816 ft 503 kts 259°
2026-04-29 22:54 18.11995 68.02840 33815 ft 503 kts 259°
2026-04-29 22:55 18.10452 67.95673 33815 ft 503 kts 259°
2026-04-29 22:55 18.09069 67.88480 33815 ft 501 kts 266°
2026-04-29 22:56 18.09338 67.81238 33815 ft 495 kts 284°
2026-04-29 22:56 18.11739 67.74530 33817 ft 491 kts 298°
2026-04-29 22:57 18.14988 67.68211 33815 ft 490 kts 301°
2026-04-29 22:57 18.18336 67.61963 33815 ft 490 kts 301°
2026-04-29 22:58 18.21636 67.55742 33815 ft 490 kts 300°
2026-04-29 22:58 18.24931 67.49458 33815 ft 491 kts 300°
2026-04-29 22:59 18.28222 67.43151 33815 ft 491 kts 300°
2026-04-29 22:59 18.31507 67.36847 33815 ft 491 kts 300°
2026-04-29 23:00 18.34236 67.31608 33818 ft 491 kts 300°
2026-04-29 23:00 18.37519 67.25302 33812 ft 491 kts 300°
2026-04-29 23:01 18.40801 67.18993 33812 ft 491 kts 300°
2026-04-29 23:01 18.44081 67.12682 33814 ft 492 kts 300°
2026-04-29 23:02 18.47364 67.06356 33812 ft 492 kts 300°
2026-04-29 23:02 18.50642 67.00034 33814 ft 492 kts 300°
2026-04-29 23:03 18.53918 66.93710 33813 ft 492 kts 300°
2026-04-29 23:03 18.57191 66.87385 33808 ft 492 kts 300°
2026-04-29 23:04 18.60471 66.81040 33810 ft 493 kts 300°
2026-04-29 23:04 18.63749 66.74693 33817 ft 493 kts 300°
2026-04-29 23:05 18.67002 66.68388 33811 ft 492 kts 300°
2026-04-29 23:05 18.70273 66.62040 33813 ft 492 kts 300°
2026-04-29 23:06 18.73540 66.55692 33815 ft 492 kts 300°
2026-04-29 23:06 18.76808 66.49338 33812 ft 493 kts 300°
2026-04-29 23:07 18.80075 66.42979 33809 ft 493 kts 300°
2026-04-29 23:07 18.83344 66.36610 33808 ft 493 kts 300°
2026-04-29 23:08 18.86607 66.30243 33810 ft 493 kts 300°
2026-04-29 23:08 18.89868 66.23877 33805 ft 492 kts 300°
2026-04-29 23:09 18.93120 66.17520 33807 ft 492 kts 300°
2026-04-29 23:09 18.96374 66.11152 33812 ft 493 kts 300°
2026-04-29 23:10 18.99627 66.04781 33806 ft 493 kts 299°
2026-04-29 23:10 19.02882 65.98396 33807 ft 493 kts 299°
2026-04-29 23:11 19.06132 65.92016 33803 ft 492 kts 300°
2026-04-29 23:11 19.09378 65.85638 33805 ft 494 kts 300°
2026-04-29 23:12 19.12630 65.79241 33808 ft 494 kts 299°
2026-04-29 23:12 19.15870 65.72859 33807 ft 491 kts 299°
2026-04-29 23:13 19.19101 65.66489 33805 ft 491 kts 299°
2026-04-29 23:13 19.22321 65.60134 33808 ft 491 kts 299°
2026-04-29 23:14 19.25550 65.53755 33805 ft 493 kts 299°
2026-04-29 23:14 19.28790 65.47346 33802 ft 493 kts 299°
2026-04-29 23:15 19.32021 65.40947 33802 ft 492 kts 299°
2026-04-29 23:15 19.35242 65.34564 33802 ft 492 kts 299°
2026-04-29 23:16 19.38466 65.28169 33799 ft 491 kts 298°
2026-04-29 23:16 19.41690 65.21764 33801 ft 493 kts 299°
2026-04-29 23:17 19.44886 65.15407 33807 ft 492 kts 299°
2026-04-29 23:17 19.48092 65.09023 33801 ft 490 kts 298°
2026-04-29 23:18 19.51303 65.02625 33801 ft 491 kts 298°
2026-04-29 23:18 19.54532 64.96224 33806 ft 493 kts 299°
2026-04-29 23:19 19.57826 64.89848 33796 ft 493 kts 299°
2026-04-29 23:19 19.61120 64.83484 33798 ft 490 kts 299°
2026-04-29 23:20 19.64389 64.77140 33800 ft 490 kts 299°
2026-04-29 23:20 19.67659 64.70776 33798 ft 492 kts 299°
2026-04-29 23:21 19.70925 64.64406 33795 ft 490 kts 299°
2026-04-29 23:21 19.74183 64.58048 33797 ft 489 kts 299°
2026-04-29 23:22 19.77412 64.51739 33798 ft 490 kts 299°
2026-04-29 23:22 19.80667 64.45375 33798 ft 492 kts 298°
2026-04-29 23:23 19.83931 64.38982 33798 ft 490 kts 298°
2026-04-29 23:23 19.87201 64.32575 33795 ft 487 kts 298°
2026-04-29 23:24 19.90425 64.26249 33797 ft 489 kts 298°
2026-04-29 23:24 19.93662 64.19889 33796 ft 490 kts 298°
2026-04-29 23:25 19.96904 64.13513 33795 ft 490 kts 298°
2026-04-29 23:25 20.00118 64.07186 33794 ft 489 kts 298°
2026-04-29 23:26 20.03336 64.00844 33792 ft 488 kts 298°
2026-04-29 23:26 20.06568 63.94466 33791 ft 490 kts 298°
2026-04-29 23:27 20.09812 63.88056 33796 ft 492 kts 298°
2026-04-29 23:27 20.13050 63.81653 33794 ft 491 kts 298°
2026-04-29 23:28 20.16280 63.75259 33792 ft 490 kts 298°
2026-04-29 23:28 20.19511 63.68853 33793 ft 492 kts 298°
2026-04-29 23:29 20.22759 63.62408 33790 ft 495 kts 298°
2026-04-29 23:29 20.26006 63.55958 33788 ft 494 kts 298°
2026-04-29 23:30 20.29240 63.49525 33791 ft 492 kts 298°
2026-04-29 23:30 20.32468 63.43100 33785 ft 491 kts 298°
2026-04-29 23:31 20.35688 63.36680 33788 ft 493 kts 298°
2026-04-29 23:31 20.38916 63.30238 33789 ft 492 kts 298°
2026-04-29 23:32 20.42110 63.23858 33787 ft 490 kts 297°
2026-04-29 23:32 20.45320 63.17436 33788 ft 491 kts 297°
2026-04-29 23:33 20.48541 63.10984 33785 ft 494 kts 297°
2026-04-29 23:33 20.51770 63.04510 33785 ft 495 kts 297°
2026-04-29 23:34 20.54996 62.98037 33788 ft 491 kts 297°
2026-04-29 23:34 20.58200 62.91597 33787 ft 491 kts 297°
2026-04-29 23:35 20.61405 62.85147 33788 ft 493 kts 297°
2026-04-29 23:35 20.64616 62.78682 33788 ft 492 kts 297°
2026-04-29 23:36 20.67819 62.72222 33784 ft 491 kts 297°
2026-04-29 23:36 20.71017 62.65765 33786 ft 492 kts 297°
2026-04-29 23:37 20.74218 62.59292 33788 ft 493 kts 297°
2026-04-29 23:37 20.77396 62.52864 33782 ft 491 kts 297°
2026-04-29 23:38 20.80581 62.46413 33785 ft 489 kts 296°
2026-04-29 23:38 20.83779 62.39921 33786 ft 491 kts 297°
2026-04-29 23:39 20.86946 62.33488 33786 ft 493 kts 296°
2026-04-29 23:39 20.90135 62.27005 33787 ft 491 kts 297°
2026-04-29 23:40 20.93316 62.20533 33784 ft 491 kts 296°
2026-04-29 23:40 20.96497 62.14048 33792 ft 493 kts 296°
2026-04-29 23:41 20.99676 62.07556 33783 ft 493 kts 296°
2026-04-29 23:41 21.02320 62.02157 33779 ft 491 kts 296°
2026-04-29 23:42 21.06001 61.94629 33781 ft 489 kts 296°
2026-04-29 23:42 21.08642 61.89220 33781 ft 491 kts 296°
2026-04-29 23:43 21.11810 61.82723 33777 ft 493 kts 296°
2026-04-29 23:43 21.14990 61.76196 33775 ft 493 kts 296°
2026-04-29 23:44 21.18159 61.69684 33775 ft 491 kts 296°
2026-04-29 23:44 21.20490 61.62871 33776 ft 487 kts 280°
2026-04-29 23:45 21.21145 61.55667 33776 ft 486 kts 271°
2026-04-29 23:45 21.21354 61.48435 33776 ft 485 kts 270°
2026-04-29 23:46 21.21502 61.41184 33776 ft 487 kts 270°
2026-04-29 23:46 21.21671 61.33988 33778 ft 485 kts 271°
2026-04-29 23:47 21.21859 61.26739 33775 ft 487 kts 271°
2026-04-29 23:47 21.22050 61.19498 33778 ft 486 kts 271°
2026-04-29 23:48 21.22238 61.12238 33778 ft 487 kts 270°
2026-04-29 23:48 21.22422 61.04994 33780 ft 486 kts 270°
2026-04-29 23:49 21.22602 60.97733 33784 ft 488 kts 270°
2026-04-29 23:49 21.22780 60.90472 33782 ft 488 kts 270°
2026-04-29 23:50 21.22955 60.83190 33785 ft 488 kts 270°
2026-04-29 23:51 21.23210 60.72294 33783 ft 489 kts 270°
2026-04-29 23:51 21.23377 60.65012 33782 ft 488 kts 270°
2026-04-29 23:52 21.23541 60.57719 33784 ft 490 kts 270°
2026-04-29 23:52 21.23703 60.50424 33785 ft 489 kts 270°
2026-04-29 23:53 21.23860 60.43139 33787 ft 489 kts 270°
2026-04-29 23:53 21.24013 60.35903 33786 ft 487 kts 270°
2026-04-29 23:54 21.24164 60.28637 33790 ft 488 kts 270°
2026-04-29 23:54 21.24312 60.21376 33790 ft 487 kts 270°
2026-04-29 23:55 21.24458 60.14104 33782 ft 488 kts 270°
2026-04-29 23:55 21.24598 60.06832 33783 ft 488 kts 270°
2026-04-29 23:56 21.24732 59.99551 33786 ft 488 kts 270°
2026-04-29 23:56 21.24865 59.92279 33785 ft 488 kts 270°
2026-04-29 23:57 21.24995 59.85002 33786 ft 489 kts 270°
2026-04-29 23:57 21.25121 59.77761 33787 ft 489 kts 270°
2026-04-29 23:58 21.25245 59.70473 33780 ft 489 kts 270°
2026-04-29 23:58 21.25366 59.63181 33783 ft 489 kts 270°
2026-04-29 23:59 21.25484 59.55889 33782 ft 489 kts 270°
2026-04-29 23:59 21.25602 59.48608 33777 ft 488 kts 270°
2026-04-30 00:00 21.25712 59.41334 33777 ft 488 kts 269°
2026-04-30 00:00 21.25818 59.34056 33782 ft 488 kts 269°
2026-04-30 00:01 21.25922 59.26783 33778 ft 488 kts 269°
2026-04-30 00:01 21.26024 59.19512 33783 ft 487 kts 269°
2026-04-30 00:02 21.26122 59.12246 33787 ft 487 kts 269°
2026-04-30 00:02 21.26218 59.04976 33782 ft 487 kts 269°
2026-04-30 00:03 21.26310 58.97725 33785 ft 486 kts 269°
2026-04-30 00:03 21.26399 58.90523 33785 ft 486 kts 269°
2026-04-30 00:04 21.26490 58.83275 33783 ft 486 kts 270°
2026-04-30 00:04 21.27529 58.76101 33786 ft 489 kts 283°
2026-04-30 00:05 21.29424 58.69091 33796 ft 490 kts 285°
2026-04-30 00:05 21.31455 58.62112 33792 ft 490 kts 285°
2026-04-30 00:06 21.33486 58.55133 33787 ft 490 kts 285°
2026-04-30 00:06 21.35482 58.48190 33783 ft 490 kts 285°
2026-04-30 00:07 21.37478 58.41196 33785 ft 490 kts 285°
2026-04-30 00:07 21.39472 58.34190 33787 ft 490 kts 285°
2026-04-30 00:08 21.41459 58.27201 33790 ft 489 kts 285°
2026-04-30 00:08 21.43443 58.20214 33786 ft 489 kts 285°
2026-04-30 00:09 21.45423 58.13228 33785 ft 489 kts 285°
2026-04-30 00:09 21.47399 58.06243 33783 ft 489 kts 285°
2026-04-30 00:10 21.49359 57.99304 33789 ft 489 kts 285°
2026-04-30 00:10 21.51329 57.92318 33788 ft 489 kts 285°
2026-04-30 00:11 21.53296 57.85325 33792 ft 489 kts 285°
2026-04-30 00:11 21.55264 57.78320 33799 ft 489 kts 285°
2026-04-30 00:12 21.57225 57.71332 33797 ft 487 kts 285°
2026-04-30 00:12 21.59180 57.64358 33790 ft 487 kts 285°
2026-04-30 00:13 21.61129 57.57377 33793 ft 488 kts 285°
2026-04-30 00:13 21.63072 57.50388 33794 ft 488 kts 285°
2026-04-30 00:14 21.65013 57.43399 33800 ft 488 kts 285°
2026-04-30 00:14 21.66953 57.36409 33789 ft 488 kts 285°
2026-04-30 00:15 21.68892 57.29407 33797 ft 489 kts 285°
2026-04-30 00:15 21.70830 57.22402 33798 ft 489 kts 285°
2026-04-30 00:16 21.72766 57.15392 33798 ft 489 kts 285°
2026-04-30 00:16 21.74697 57.08389 33795 ft 489 kts 285°
2026-04-30 00:17 21.76622 57.01372 33794 ft 489 kts 285°
2026-04-30 00:17 21.78544 56.94353 33793 ft 489 kts 285°
2026-04-30 00:18 21.80465 56.87333 33790 ft 489 kts 285°
2026-04-30 00:18 21.82372 56.80352 33781 ft 489 kts 285°
2026-04-30 00:19 21.84289 56.73325 33779 ft 489 kts 285°
2026-04-30 00:19 21.86208 56.66290 33794 ft 489 kts 285°
2026-04-30 00:20 21.88117 56.59266 33777 ft 488 kts 284°
2026-04-30 00:20 21.90033 56.52197 33769 ft 489 kts 284°
2026-04-30 00:21 21.91935 56.45172 33780 ft 489 kts 284°
2026-04-30 00:21 21.93835 56.38141 33774 ft 489 kts 284°
2026-04-30 00:22 21.95736 56.31110 33776 ft 489 kts 284°
2026-04-30 00:22 21.97629 56.24065 33767 ft 490 kts 284°
2026-04-30 00:23 21.99199 56.18204 33772 ft 490 kts 284°
2026-04-30 00:23 22.01086 56.11149 33765 ft 489 kts 284°
2026-04-30 00:24 22.03276 56.02978 33767 ft 488 kts 284°
2026-04-30 00:24 22.04855 55.97092 33764 ft 488 kts 284°
2026-04-30 00:25 22.06736 55.90061 33766 ft 488 kts 284°
2026-04-30 00:25 22.08613 55.83033 33760 ft 488 kts 284°
2026-04-30 00:26 22.10475 55.76051 33770 ft 488 kts 284°
2026-04-30 00:26 22.12346 55.69022 33764 ft 488 kts 284°
2026-04-30 00:27 22.14214 55.61990 33760 ft 488 kts 284°
2026-04-30 00:27 22.15736 55.54890 33763 ft 484 kts 275°
2026-04-30 00:28 22.16465 55.47633 33752 ft 483 kts 274°
2026-04-30 00:28 22.17050 55.40418 33764 ft 483 kts 273°
2026-04-30 00:29 22.17613 55.33249 33752 ft 483 kts 273°
2026-04-30 00:29 22.18191 55.26034 33755 ft 483 kts 273°
2026-04-30 00:30 22.18775 55.18816 33772 ft 483 kts 273°
2026-04-30 00:30 22.19358 55.11596 33764 ft 483 kts 273°
2026-04-30 00:31 22.19937 55.04377 33757 ft 483 kts 273°
2026-04-30 00:31 22.20513 54.97153 33754 ft 483 kts 273°
2026-04-30 00:32 22.21086 54.89921 33767 ft 484 kts 273°
2026-04-30 00:32 22.21656 54.82692 33773 ft 483 kts 273°
2026-04-30 00:33 22.22222 54.75465 33759 ft 482 kts 273°
2026-04-30 00:33 22.22780 54.68317 33781 ft 480 kts 273°
2026-04-30 00:34 22.23335 54.61135 33764 ft 480 kts 273°
2026-04-30 00:34 22.23887 54.53955 33785 ft 480 kts 273°
2026-04-30 00:35 22.24438 54.46762 33770 ft 480 kts 273°
2026-04-30 00:35 22.24985 54.39579 33763 ft 480 kts 273°
2026-04-30 00:36 22.25529 54.32387 33779 ft 480 kts 273°
2026-04-30 00:36 22.26070 54.25205 33766 ft 480 kts 273°
2026-04-30 00:37 22.26607 54.18023 33785 ft 480 kts 273°
2026-04-30 00:37 22.27141 54.10843 33772 ft 480 kts 273°
2026-04-30 00:38 22.27671 54.03665 33784 ft 480 kts 273°
2026-04-30 00:38 22.28200 53.96473 33787 ft 480 kts 272°
2026-04-30 00:39 22.28724 53.89303 33779 ft 478 kts 272°
2026-04-30 00:39 22.29242 53.82155 33780 ft 477 kts 272°
2026-04-30 00:40 22.29757 53.75008 33778 ft 477 kts 272°
2026-04-30 00:40 22.30269 53.67864 33785 ft 477 kts 272°
2026-04-30 00:41 22.30777 53.60720 33775 ft 477 kts 272°
2026-04-30 00:41 22.31284 53.53574 33775 ft 477 kts 272°
2026-04-30 00:42 22.31787 53.46427 33771 ft 477 kts 272°
2026-04-30 00:42 22.32286 53.39284 33783 ft 477 kts 272°
2026-04-30 00:43 22.32779 53.32178 33781 ft 477 kts 272°
2026-04-30 00:43 22.33273 53.25029 33800 ft 477 kts 272°
2026-04-30 00:44 22.33763 53.17880 33781 ft 477 kts 272°
2026-04-30 00:44 22.34251 53.10732 33779 ft 475 kts 272°
2026-04-30 00:45 22.34733 53.03612 33783 ft 475 kts 272°
2026-04-30 00:45 22.35210 52.96502 33784 ft 475 kts 272°
2026-04-30 00:46 22.35686 52.89386 33784 ft 475 kts 272°
2026-04-30 00:46 22.36154 52.82317 33784 ft 475 kts 272°
2026-04-30 00:47 22.36624 52.75199 33790 ft 475 kts 272°
2026-04-30 00:47 22.37092 52.68046 33784 ft 474 kts 272°
2026-04-30 00:48 22.37554 52.60942 33784 ft 474 kts 272°
2026-04-30 00:48 22.38010 52.53885 33786 ft 474 kts 272°
2026-04-30 00:49 22.38466 52.46785 33789 ft 473 kts 272°
2026-04-30 00:49 22.38918 52.39683 33789 ft 473 kts 272°
2026-04-30 00:50 22.39367 52.32599 33787 ft 472 kts 272°
2026-04-30 00:50 22.39812 52.25530 33789 ft 471 kts 271°
2026-04-30 00:51 22.40252 52.18476 33785 ft 470 kts 271°
2026-04-30 00:51 22.40691 52.11425 33785 ft 470 kts 272°
2026-04-30 00:52 22.41246 52.04382 33785 ft 471 kts 273°
2026-04-30 00:52 22.41857 51.97338 33788 ft 471 kts 273°
2026-04-30 00:53 22.42451 51.90293 33785 ft 471 kts 273°
2026-04-30 00:53 22.43023 51.83292 33785 ft 471 kts 272°
2026-04-30 00:54 22.43597 51.76151 33793 ft 470 kts 272°
2026-04-30 00:54 22.44157 51.69148 33793 ft 470 kts 272°
2026-04-30 00:55 22.44718 51.62110 33792 ft 469 kts 272°
2026-04-30 00:55 22.45550 51.51593 33793 ft 467 kts 272°
2026-04-30 00:56 22.46099 51.44597 33796 ft 467 kts 272°
2026-04-30 00:56 22.46646 51.37601 33799 ft 467 kts 272°
2026-04-30 00:57 22.47190 51.30598 33799 ft 467 kts 272°
2026-04-30 00:57 22.47730 51.23611 33799 ft 466 kts 272°
2026-04-30 00:58 22.48267 51.16627 33801 ft 466 kts 272°
2026-04-30 00:58 22.48799 51.09648 33801 ft 466 kts 272°
2026-04-30 00:59 22.49330 51.02659 33801 ft 466 kts 272°
2026-04-30 00:59 22.49858 50.95677 33801 ft 466 kts 272°
2026-04-30 01:00 22.50383 50.88698 33809 ft 465 kts 272°
2026-04-30 01:00 22.50906 50.81685 33810 ft 464 kts 272°
2026-04-30 01:01 22.51421 50.74733 33810 ft 464 kts 272°
2026-04-30 01:01 22.51934 50.67774 33810 ft 464 kts 272°
2026-04-30 01:02 22.52444 50.60814 33809 ft 464 kts 272°
2026-04-30 01:02 22.52867 50.55025 33810 ft 464 kts 272°
2026-04-30 01:03 22.53372 50.48061 33809 ft 464 kts 272°
2026-04-30 01:03 22.53875 50.41091 33812 ft 464 kts 272°
2026-04-30 01:04 22.54374 50.34115 33815 ft 465 kts 272°
2026-04-30 01:04 22.54871 50.27141 33815 ft 465 kts 272°
2026-04-30 01:05 22.55362 50.20209 33815 ft 465 kts 272°
2026-04-30 01:05 22.55853 50.13243 33818 ft 464 kts 272°
2026-04-30 01:06 22.56339 50.06287 33821 ft 464 kts 272°
2026-04-30 01:06 22.56822 49.99330 33824 ft 464 kts 272°
2026-04-30 01:07 22.57302 49.92372 33821 ft 464 kts 272°
2026-04-30 01:07 22.57780 49.85417 33821 ft 463 kts 272°
2026-04-30 01:08 22.58254 49.78462 33823 ft 464 kts 272°
2026-04-30 01:08 22.58725 49.71505 33823 ft 464 kts 272°
2026-04-30 01:09 22.59194 49.64542 33824 ft 464 kts 272°
2026-04-30 01:09 22.59661 49.57560 33842 ft 464 kts 271°
2026-04-30 01:10 22.60124 49.50607 33822 ft 462 kts 271°
2026-04-30 01:10 22.60582 49.43666 33826 ft 463 kts 271°
2026-04-30 01:11 22.61037 49.36714 33826 ft 463 kts 271°
2026-04-30 01:11 22.61490 49.29757 33829 ft 463 kts 271°
2026-04-30 01:12 22.61940 49.22800 33827 ft 464 kts 271°
2026-04-30 01:12 22.62388 49.15836 33829 ft 464 kts 271°
2026-04-30 01:13 22.62830 49.08914 33829 ft 464 kts 271°
2026-04-30 01:13 22.63272 49.01938 33837 ft 465 kts 271°
2026-04-30 01:14 22.63715 48.94906 33837 ft 465 kts 271°
2026-04-30 01:14 22.64151 48.87926 33834 ft 464 kts 271°
2026-04-30 01:15 22.64584 48.80972 33837 ft 462 kts 271°
2026-04-30 01:15 22.65012 48.74029 33841 ft 462 kts 271°
2026-04-30 01:16 22.65436 48.67083 33839 ft 462 kts 271°
2026-04-30 01:16 22.65856 48.60174 33839 ft 463 kts 271°
2026-04-30 01:17 22.66276 48.53220 33840 ft 463 kts 271°
2026-04-30 01:17 22.66693 48.46263 33842 ft 463 kts 271°
2026-04-30 01:18 22.67107 48.39300 33842 ft 463 kts 271°
2026-04-30 01:18 22.67518 48.32332 33843 ft 464 kts 271°
2026-04-30 01:19 22.67927 48.25364 33859 ft 464 kts 270°
2026-04-30 01:19 22.68330 48.18455 33843 ft 463 kts 270°
2026-04-30 01:20 22.68731 48.11501 33845 ft 463 kts 270°
2026-04-30 01:20 22.69129 48.04551 33848 ft 463 kts 270°
2026-04-30 01:21 22.69615 47.97591 33851 ft 463 kts 272°
2026-04-30 01:21 22.70236 47.90650 33851 ft 463 kts 272°
2026-04-30 01:22 22.70851 47.83715 33851 ft 462 kts 272°
2026-04-30 01:22 22.71439 47.76771 33857 ft 462 kts 272°
2026-04-30 01:23 22.72011 47.69847 33856 ft 461 kts 272°
2026-04-30 01:23 22.72579 47.62930 33860 ft 460 kts 272°
2026-04-30 01:24 22.73142 47.56035 33855 ft 458 kts 272°
2026-04-30 01:24 22.73700 47.49175 33861 ft 457 kts 272°
2026-04-30 01:25 22.74255 47.42314 33862 ft 457 kts 272°
2026-04-30 01:25 22.74803 47.35503 33864 ft 457 kts 272°
2026-04-30 01:26 22.75352 47.28648 33867 ft 457 kts 272°
2026-04-30 01:26 22.75898 47.21785 33867 ft 457 kts 272°
2026-04-30 01:27 22.76445 47.14924 33867 ft 457 kts 272°
2026-04-30 01:27 22.76992 47.08062 33870 ft 456 kts 272°
2026-04-30 01:28 22.77533 47.01215 33874 ft 455 kts 272°
2026-04-30 01:28 22.78069 46.94389 33878 ft 454 kts 272°
2026-04-30 01:29 22.78602 46.87579 33875 ft 453 kts 272°
2026-04-30 01:29 22.79131 46.80778 33886 ft 453 kts 272°
2026-04-30 01:30 22.79658 46.73970 33888 ft 453 kts 272°
2026-04-30 01:30 22.80181 46.67167 33884 ft 453 kts 272°
2026-04-30 01:31 22.80705 46.60313 33893 ft 453 kts 272°
2026-04-30 01:31 22.81223 46.53510 33890 ft 453 kts 272°
2026-04-30 01:32 22.81735 46.46756 33899 ft 452 kts 272°
2026-04-30 01:32 22.82247 46.39957 33891 ft 448 kts 272°
2026-04-30 01:33 22.82750 46.33262 33889 ft 447 kts 272°
2026-04-30 01:33 22.83244 46.26553 33885 ft 446 kts 272°
2026-04-30 01:34 22.83735 46.19841 33879 ft 446 kts 272°
2026-04-30 01:34 22.84224 46.13137 33869 ft 446 kts 272°
2026-04-30 01:35 22.84711 46.06426 33863 ft 446 kts 272°
2026-04-30 01:35 22.85196 45.99722 33856 ft 446 kts 272°
2026-04-30 01:36 22.85679 45.93013 33871 ft 446 kts 272°
2026-04-30 01:36 22.86158 45.86316 33857 ft 445 kts 272°
2026-04-30 01:37 22.86632 45.79637 33857 ft 444 kts 272°
2026-04-30 01:37 22.87103 45.72958 33857 ft 444 kts 272°
2026-04-30 01:38 22.87572 45.66274 33856 ft 445 kts 272°
2026-04-30 01:38 22.88038 45.59591 33857 ft 445 kts 272°
2026-04-30 01:39 22.88499 45.52940 33859 ft 445 kts 272°
2026-04-30 01:39 22.88961 45.46239 33865 ft 446 kts 272°
2026-04-30 01:40 22.89419 45.39542 33865 ft 445 kts 272°
2026-04-30 01:40 22.89875 45.32841 33866 ft 444 kts 272°
2026-04-30 01:41 22.90327 45.26171 33867 ft 442 kts 272°
2026-04-30 01:41 22.90774 45.19519 33869 ft 442 kts 272°
2026-04-30 01:42 22.91218 45.12862 33872 ft 443 kts 272°
2026-04-30 01:42 22.91661 45.06193 33875 ft 443 kts 272°
2026-04-30 01:43 22.92100 44.99530 33871 ft 443 kts 272°
2026-04-30 01:43 22.92462 44.93983 33877 ft 443 kts 272°
2026-04-30 01:44 22.92969 44.86189 33878 ft 443 kts 272°
2026-04-30 01:44 22.93327 44.80648 33879 ft 443 kts 272°
2026-04-30 01:45 22.93754 44.73983 33879 ft 443 kts 272°
2026-04-30 01:45 22.94387 44.67323 33888 ft 445 kts 278°
2026-04-30 01:46 22.96087 44.60833 33896 ft 448 kts 284°
2026-04-30 01:46 22.98058 44.54416 33892 ft 448 kts 285°
2026-04-30 01:47 23.00068 44.48004 33891 ft 448 kts 285°
2026-04-30 01:47 23.02060 44.41591 33907 ft 448 kts 284°
2026-04-30 01:48 23.04034 44.35180 33893 ft 447 kts 284°
2026-04-30 01:48 23.05987 44.28815 33909 ft 447 kts 284°
2026-04-30 01:49 23.07951 44.22405 33907 ft 447 kts 284°
2026-04-30 01:49 23.09925 44.15951 33910 ft 447 kts 284°
2026-04-30 01:50 23.11882 44.09546 33911 ft 447 kts 284°
2026-04-30 01:50 23.13849 44.03096 33916 ft 447 kts 284°
2026-04-30 01:51 23.15800 43.96688 33916 ft 446 kts 284°
2026-04-30 01:51 23.17748 43.90279 33921 ft 446 kts 284°
2026-04-30 01:52 23.19693 43.83872 33924 ft 447 kts 284°
2026-04-30 01:52 23.21636 43.77459 33933 ft 447 kts 284°
2026-04-30 01:53 23.23578 43.71038 33932 ft 447 kts 284°
2026-04-30 01:53 23.25517 43.64621 33944 ft 447 kts 284°
2026-04-30 01:54 23.27453 43.58201 33945 ft 446 kts 284°
2026-04-30 01:54 23.29391 43.51781 33944 ft 446 kts 284°
2026-04-30 01:55 23.31318 43.45364 33953 ft 446 kts 284°
2026-04-30 01:55 23.33242 43.38944 33956 ft 446 kts 284°
2026-04-30 01:56 23.35163 43.32531 33964 ft 446 kts 284°
2026-04-30 01:56 23.37082 43.26116 33968 ft 446 kts 284°
2026-04-30 01:57 23.38986 43.19742 33969 ft 445 kts 284°
2026-04-30 01:57 23.40893 43.13348 33971 ft 444 kts 284°
2026-04-30 01:58 23.42795 43.06951 33978 ft 444 kts 283°
2026-04-30 01:58 23.44689 43.00556 33981 ft 444 kts 283°
2026-04-30 01:59 23.47518 42.90985 33982 ft 442 kts 283°
2026-04-30 02:00 23.49402 42.84603 33979 ft 442 kts 283°
2026-04-30 02:00 23.51284 42.78217 33983 ft 442 kts 283°
2026-04-30 02:01 23.53163 42.71840 33981 ft 442 kts 283°
2026-04-30 02:01 23.55045 42.65447 33980 ft 442 kts 283°
2026-04-30 02:02 23.56921 42.59069 33989 ft 442 kts 283°
2026-04-30 02:02 23.58789 42.52706 33980 ft 440 kts 283°
2026-04-30 02:03 23.60649 42.46358 33982 ft 440 kts 283°
2026-04-30 02:03 23.62508 42.40001 34001 ft 440 kts 283°
2026-04-30 02:04 23.64357 42.33672 33982 ft 436 kts 283°
2026-04-30 02:04 23.66196 42.27369 33984 ft 436 kts 283°
2026-04-30 02:05 23.68027 42.21070 33974 ft 436 kts 283°
2026-04-30 02:05 23.69848 42.14772 33982 ft 433 kts 283°
2026-04-30 02:06 23.71654 42.08517 33985 ft 432 kts 283°
2026-04-30 02:06 23.73457 42.02267 33985 ft 432 kts 283°
2026-04-30 02:07 23.75260 41.96016 33987 ft 431 kts 283°
2026-04-30 02:07 23.77063 41.89777 33991 ft 431 kts 283°
2026-04-30 02:08 23.78864 41.83538 33988 ft 431 kts 283°
2026-04-30 02:08 23.80663 41.77294 33991 ft 431 kts 283°
2026-04-30 02:09 23.82460 41.71058 33989 ft 430 kts 283°
2026-04-30 02:09 23.84247 41.64816 33988 ft 430 kts 283°
2026-04-30 02:10 23.86032 41.58574 33986 ft 431 kts 283°
2026-04-30 02:10 23.87814 41.52333 33986 ft 430 kts 283°
2026-04-30 02:11 23.89599 41.46046 33985 ft 430 kts 282°
2026-04-30 02:11 23.91367 41.39803 33987 ft 430 kts 282°
2026-04-30 02:12 23.93137 41.33558 33987 ft 430 kts 282°
2026-04-30 02:12 23.94909 41.27314 33981 ft 430 kts 282°
2026-04-30 02:13 23.96676 41.21068 33981 ft 430 kts 282°
2026-04-30 02:13 23.98440 41.14824 33982 ft 430 kts 282°
2026-04-30 02:14 24.00190 41.08622 33982 ft 429 kts 282°
2026-04-30 02:14 24.01959 41.02340 33982 ft 429 kts 282°
2026-04-30 02:15 24.03704 40.96133 33979 ft 429 kts 282°
2026-04-30 02:15 24.05463 40.89885 33982 ft 429 kts 282°
2026-04-30 02:16 24.07211 40.83642 33980 ft 429 kts 282°
2026-04-30 02:16 24.08956 40.77400 33980 ft 429 kts 282°
2026-04-30 02:17 24.10700 40.71151 33977 ft 429 kts 282°
2026-04-30 02:17 24.12441 40.64906 33977 ft 429 kts 282°
2026-04-30 02:18 24.14183 40.58651 33974 ft 429 kts 282°
2026-04-30 02:18 24.15977 40.52462 33974 ft 432 kts 286°
2026-04-30 02:19 24.18575 40.46437 33981 ft 436 kts 291°
2026-04-30 02:19 24.21365 40.40583 33973 ft 436 kts 292°
2026-04-30 02:20 24.24210 40.34703 33972 ft 436 kts 292°
2026-04-30 02:20 24.27043 40.28818 33973 ft 436 kts 291°
2026-04-30 02:21 24.29863 40.22926 33977 ft 436 kts 291°
2026-04-30 02:21 24.32222 40.17984 33974 ft 436 kts 291°
2026-04-30 02:22 24.35029 40.12098 33974 ft 435 kts 291°
2026-04-30 02:22 24.37832 40.06212 33968 ft 435 kts 291°
2026-04-30 02:23 24.40638 40.00314 33982 ft 435 kts 291°
2026-04-30 02:23 24.43416 39.94468 33980 ft 434 kts 291°
2026-04-30 02:24 24.46205 39.88591 33984 ft 434 kts 291°
2026-04-30 02:24 24.48990 39.82715 33990 ft 434 kts 291°
2026-04-30 02:25 24.51773 39.76836 33995 ft 433 kts 291°
2026-04-30 02:25 24.55038 39.71234 33993 ft 442 kts 302°
2026-04-30 02:26 24.59642 39.66581 33993 ft 456 kts 314°
2026-04-30 02:26 24.64774 39.62423 33973 ft 459 kts 315°
2026-04-30 02:27 24.69980 39.58336 33974 ft 460 kts 315°
2026-04-30 02:27 24.75163 39.54236 33968 ft 458 kts 315°
2026-04-30 02:28 24.80321 39.50118 33971 ft 457 kts 315°
2026-04-30 02:28 24.85466 39.45993 33994 ft 458 kts 315°
2026-04-30 02:29 24.90610 39.41865 33976 ft 457 kts 315°
2026-04-30 02:29 24.95741 39.37741 33966 ft 456 kts 315°
2026-04-30 02:30 25.00871 39.33617 33985 ft 456 kts 315°
2026-04-30 02:30 25.05998 39.29495 33973 ft 456 kts 315°
2026-04-30 02:31 25.11115 39.25372 33968 ft 456 kts 315°
2026-04-30 02:31 25.16236 39.21242 33967 ft 456 kts 315°
2026-04-30 02:32 25.21145 39.16950 33973 ft 446 kts 307°
2026-04-30 02:32 25.24982 39.11713 33968 ft 435 kts 298°
2026-04-30 02:33 25.28316 39.06142 33967 ft 434 kts 296°
2026-04-30 02:33 25.31565 39.00515 33960 ft 434 kts 296°
2026-04-30 02:34 25.34824 38.94890 33953 ft 434 kts 296°
2026-04-30 02:34 25.38100 38.89266 33948 ft 434 kts 296°
2026-04-30 02:35 25.41373 38.83654 33934 ft 434 kts 296°
2026-04-30 02:35 25.44643 38.78042 33949 ft 434 kts 296°
2026-04-30 02:36 25.47911 38.72426 33941 ft 434 kts 296°
2026-04-30 02:36 25.51174 38.66809 33928 ft 433 kts 296°
2026-04-30 02:37 25.54435 38.61190 33923 ft 434 kts 296°
2026-04-30 02:37 25.57693 38.55567 33927 ft 434 kts 296°
2026-04-30 02:38 25.60952 38.49938 33926 ft 434 kts 296°
2026-04-30 02:38 25.64209 38.44305 33918 ft 434 kts 296°
2026-04-30 02:39 25.67462 38.38672 33923 ft 434 kts 296°
2026-04-30 02:39 25.70716 38.33028 33927 ft 435 kts 296°
2026-04-30 02:40 25.73975 38.27371 33915 ft 435 kts 296°
2026-04-30 02:40 25.77235 38.21706 33916 ft 435 kts 296°
2026-04-30 02:41 25.80488 38.16044 33910 ft 435 kts 296°
2026-04-30 02:41 25.83735 38.10371 33911 ft 436 kts 296°
2026-04-30 02:42 25.86991 38.04693 33922 ft 436 kts 296°
2026-04-30 02:42 25.90249 37.99012 33928 ft 436 kts 296°
2026-04-30 02:43 25.93498 37.93328 33933 ft 436 kts 297°
2026-04-30 02:43 25.96722 37.87675 33938 ft 436 kts 296°
2026-04-30 02:44 25.99676 37.81788 33937 ft 430 kts 288°
2026-04-30 02:44 26.01257 37.75461 33943 ft 424 kts 277°
2026-04-30 02:45 26.02200 37.68988 33950 ft 424 kts 276°
2026-04-30 02:45 26.03044 37.62498 33949 ft 424 kts 276°
2026-04-30 02:46 26.03896 37.56000 33946 ft 425 kts 276°
2026-04-30 02:46 26.04768 37.49495 33945 ft 425 kts 276°
2026-04-30 02:47 26.05646 37.42979 33943 ft 426 kts 276°
2026-04-30 02:47 26.06517 37.36459 33938 ft 426 kts 276°
2026-04-30 02:48 26.07382 37.29946 33930 ft 426 kts 276°
2026-04-30 02:48 26.08253 37.23380 33930 ft 427 kts 276°
2026-04-30 02:49 26.09112 37.16886 33925 ft 427 kts 276°
2026-04-30 02:49 26.09977 37.10332 33913 ft 428 kts 276°
2026-04-30 02:50 26.10839 37.03784 33911 ft 428 kts 276°
2026-04-30 02:50 26.11695 36.97235 33919 ft 428 kts 276°
2026-04-30 02:51 26.12549 36.90671 33904 ft 429 kts 276°
2026-04-30 02:51 26.13402 36.84112 33897 ft 427 kts 276°
2026-04-30 02:52 26.14243 36.77625 33894 ft 426 kts 276°
2026-04-30 02:52 26.15085 36.71095 33892 ft 427 kts 276°
2026-04-30 02:53 26.15925 36.64551 33886 ft 427 kts 276°
2026-04-30 02:53 26.16765 36.57991 33886 ft 427 kts 276°
2026-04-30 02:54 26.18107 36.51532 33884 ft 431 kts 287°
2026-04-30 02:54 26.20963 36.45602 33884 ft 441 kts 301°
2026-04-30 02:55 26.25073 36.40449 33884 ft 447 kts 308°
2026-04-30 02:55 26.29427 36.35483 33904 ft 448 kts 308°
2026-04-30 02:56 26.33800 36.30519 33886 ft 450 kts 308°
2026-04-30 02:56 26.38159 36.25516 33886 ft 450 kts 308°
2026-04-30 02:57 26.42508 36.20491 33893 ft 449 kts 308°
2026-04-30 02:57 26.46845 36.15470 33896 ft 449 kts 308°
2026-04-30 02:58 26.51177 36.10449 33896 ft 449 kts 308°
2026-04-30 02:58 26.55511 36.05419 33898 ft 449 kts 308°
2026-04-30 02:59 26.59846 36.00385 33879 ft 449 kts 308°
2026-04-30 02:59 26.64176 35.95351 33881 ft 449 kts 308°
2026-04-30 03:00 26.67775 35.91161 33896 ft 449 kts 308°
2026-04-30 03:00 26.72098 35.86125 33894 ft 449 kts 308°
2026-04-30 03:01 26.76422 35.81081 33900 ft 449 kts 308°
2026-04-30 03:01 26.80741 35.76038 33897 ft 449 kts 308°
2026-04-30 03:02 26.85058 35.70989 33900 ft 448 kts 308°
2026-04-30 03:02 26.89370 35.65941 33903 ft 448 kts 308°
2026-04-30 03:03 26.93684 35.60886 33905 ft 448 kts 308°
2026-04-30 03:03 27.00147 35.53300 33911 ft 449 kts 308°
2026-04-30 03:04 27.04455 35.48237 33922 ft 448 kts 309°
2026-04-30 03:04 27.08758 35.43175 33914 ft 448 kts 309°
2026-04-30 03:05 27.13058 35.38110 33917 ft 448 kts 309°
2026-04-30 03:05 27.17354 35.33042 33919 ft 448 kts 309°
2026-04-30 03:06 27.21649 35.27970 33917 ft 448 kts 309°
2026-04-30 03:06 27.25943 35.22892 33918 ft 448 kts 309°
2026-04-30 03:07 27.30239 35.17807 33922 ft 448 kts 309°
2026-04-30 03:07 27.34530 35.12721 33925 ft 448 kts 309°
2026-04-30 03:08 27.38822 35.07628 33922 ft 448 kts 309°
2026-04-30 03:08 27.43080 35.02569 33930 ft 448 kts 309°
2026-04-30 03:09 27.47356 34.97483 33929 ft 447 kts 309°
2026-04-30 03:09 27.51656 34.92361 33925 ft 447 kts 309°
2026-04-30 03:10 27.56097 34.87493 33925 ft 449 kts 313°
2026-04-30 03:10 27.60721 34.82738 33926 ft 450 kts 313°
2026-04-30 03:11 27.65322 34.77964 33928 ft 449 kts 312°
2026-04-30 03:11 27.69892 34.73148 33944 ft 449 kts 312°
2026-04-30 03:12 27.74448 34.68315 33925 ft 449 kts 312°
2026-04-30 03:12 27.79000 34.63478 33936 ft 449 kts 312°
2026-04-30 03:13 27.83544 34.58647 33933 ft 448 kts 312°
2026-04-30 03:13 27.88090 34.53809 33935 ft 448 kts 312°
2026-04-30 03:14 27.92628 34.48975 33941 ft 448 kts 312°
2026-04-30 03:14 27.97167 34.44140 33944 ft 448 kts 312°
2026-04-30 03:15 28.01422 34.39056 33938 ft 443 kts 306°
2026-04-30 03:15 28.05370 34.33699 33940 ft 443 kts 305°
2026-04-30 03:16 28.09261 34.28299 33941 ft 443 kts 305°
2026-04-30 03:16 28.13149 34.22888 33963 ft 443 kts 305°
2026-04-30 03:17 28.17035 34.17488 33975 ft 441 kts 305°
2026-04-30 03:17 28.20906 34.12110 33973 ft 440 kts 305°
2026-04-30 03:18 28.24775 34.06733 34001 ft 440 kts 305°
2026-04-30 03:18 28.28617 34.01381 34003 ft 441 kts 305°
2026-04-30 03:19 28.32486 33.95990 34010 ft 440 kts 305°
2026-04-30 03:19 28.36355 33.90589 34006 ft 441 kts 306°
2026-04-30 03:20 28.40222 33.85184 34010 ft 441 kts 306°
2026-04-30 03:20 28.44087 33.79773 34008 ft 441 kts 305°
2026-04-30 03:21 28.47951 33.74358 34007 ft 441 kts 305°
2026-04-30 03:21 28.51807 33.68946 34013 ft 441 kts 305°
2026-04-30 03:22 28.55638 33.63572 34013 ft 440 kts 306°
2026-04-30 03:22 28.59495 33.58163 34017 ft 440 kts 306°
2026-04-30 03:23 28.63346 33.52754 34013 ft 440 kts 306°
2026-04-30 03:23 28.67195 33.47335 34010 ft 440 kts 305°
2026-04-30 03:24 28.71036 33.41907 34017 ft 440 kts 305°
2026-04-30 03:24 28.74875 33.36477 34015 ft 440 kts 305°
2026-04-30 03:25 28.78712 33.31048 34016 ft 440 kts 305°
2026-04-30 03:25 28.82528 33.25642 34016 ft 440 kts 305°
2026-04-30 03:26 28.86363 33.20200 34020 ft 440 kts 305°
2026-04-30 03:26 28.90195 33.14755 34024 ft 440 kts 305°
2026-04-30 03:27 28.94026 33.09305 34020 ft 440 kts 305°
2026-04-30 03:27 28.97852 33.03855 34021 ft 440 kts 305°
2026-04-30 03:28 29.01674 32.98404 34020 ft 440 kts 305°
2026-04-30 03:28 29.05497 32.92944 34023 ft 440 kts 305°
2026-04-30 03:29 29.09315 32.87484 34026 ft 440 kts 306°
2026-04-30 03:29 29.13128 32.82023 34026 ft 439 kts 305°
2026-04-30 03:30 29.16940 32.76558 34026 ft 439 kts 305°
2026-04-30 03:30 29.20722 32.71128 34026 ft 439 kts 305°
2026-04-30 03:31 29.24527 32.65658 34026 ft 439 kts 305°
2026-04-30 03:31 29.28331 32.60182 34031 ft 439 kts 306°
2026-04-30 03:32 29.32124 32.54688 34029 ft 439 kts 305°
2026-04-30 03:32 29.35898 32.49180 34040 ft 440 kts 305°
2026-04-30 03:33 29.39676 32.43659 34033 ft 440 kts 305°
2026-04-30 03:33 29.43452 32.38141 34034 ft 439 kts 305°
2026-04-30 03:34 29.47226 32.32623 34035 ft 439 kts 306°
2026-04-30 03:34 29.50990 32.27111 34041 ft 439 kts 306°
2026-04-30 03:35 29.54753 32.21593 34039 ft 439 kts 305°
2026-04-30 03:35 29.58509 32.16076 34041 ft 438 kts 305°
2026-04-30 03:36 29.62266 32.10553 34041 ft 438 kts 305°
2026-04-30 03:36 29.66018 32.05028 34043 ft 438 kts 306°
2026-04-30 03:37 29.69754 31.99520 34038 ft 436 kts 306°
2026-04-30 03:37 29.73483 31.94017 34035 ft 436 kts 306°
2026-04-30 03:38 29.77213 31.88505 34038 ft 436 kts 306°
2026-04-30 03:38 29.80901 31.82973 34034 ft 435 kts 304°
2026-04-30 03:39 29.84461 31.77387 34033 ft 435 kts 304°
2026-04-30 03:39 29.88029 31.71759 34029 ft 434 kts 304°
2026-04-30 03:40 29.91605 31.66151 34032 ft 434 kts 304°
2026-04-30 03:40 29.95211 31.60565 34037 ft 434 kts 304°
2026-04-30 03:41 29.98829 31.54979 34043 ft 434 kts 304°
2026-04-30 03:41 30.02442 31.49388 34046 ft 434 kts 305°
2026-04-30 03:42 30.06047 31.43800 34049 ft 434 kts 304°
2026-04-30 03:42 30.09830 31.38369 34047 ft 436 kts 312°
2026-04-30 03:43 30.14164 31.33516 34049 ft 437 kts 314°
2026-04-30 03:43 30.18619 31.28734 34046 ft 437 kts 314°
2026-04-30 03:44 30.23093 31.23957 34046 ft 438 kts 314°
2026-04-30 03:44 30.26795 31.19986 34026 ft 435 kts 314°
2026-04-30 03:45 30.31224 31.15219 34029 ft 435 kts 314°
2026-04-30 03:45 30.35645 31.10448 34029 ft 435 kts 314°
2026-04-30 03:46 30.40069 31.05668 34032 ft 435 kts 314°
2026-04-30 03:46 30.44496 31.00880 34034 ft 435 kts 314°
2026-04-30 03:47 30.48914 30.96095 34043 ft 435 kts 314°
2026-04-30 03:47 30.53329 30.91307 34035 ft 434 kts 314°
2026-04-30 03:48 30.57713 30.86548 34041 ft 434 kts 314°
2026-04-30 03:48 30.62120 30.81756 34039 ft 434 kts 314°
2026-04-30 03:49 30.66526 30.76959 34041 ft 434 kts 314°
2026-04-30 03:49 30.70933 30.72155 34048 ft 434 kts 314°
2026-04-30 03:50 30.75337 30.67348 34044 ft 434 kts 314°
2026-04-30 03:50 30.79737 30.62539 34052 ft 434 kts 314°
2026-04-30 03:51 30.84136 30.57724 34047 ft 434 kts 314°
2026-04-30 03:51 30.88534 30.52905 34048 ft 434 kts 314°
2026-04-30 03:52 30.92928 30.48083 34050 ft 434 kts 314°
2026-04-30 03:52 30.97288 30.43292 34050 ft 434 kts 314°
2026-04-30 03:53 31.01677 30.38463 34059 ft 434 kts 314°
2026-04-30 03:53 31.06018 30.33577 34066 ft 433 kts 310°
2026-04-30 03:54 31.09477 30.27895 34048 ft 429 kts 296°
2026-04-30 03:54 31.11659 30.21407 34046 ft 430 kts 289°
2026-04-30 03:55 31.13476 30.14757 34061 ft 430 kts 288°
2026-04-30 03:55 31.15250 30.08078 34050 ft 431 kts 288°
2026-04-30 03:56 31.17047 30.01385 34055 ft 432 kts 288°
2026-04-30 03:56 31.19213 29.94906 34048 ft 432 kts 297°
2026-04-30 03:57 31.22492 29.89031 34047 ft 432 kts 304°
2026-04-30 03:57 31.26032 29.83345 34049 ft 433 kts 305°
2026-04-30 03:58 31.29604 29.77683 34052 ft 433 kts 305°
2026-04-30 03:58 31.33166 29.71998 34054 ft 433 kts 304°
2026-04-30 03:59 31.36715 29.66297 34059 ft 433 kts 304°
2026-04-30 03:59 31.40257 29.60591 34061 ft 433 kts 304°
2026-04-30 04:00 31.43800 29.54875 34064 ft 433 kts 304°
2026-04-30 04:00 31.47311 29.49202 34064 ft 433 kts 304°
2026-04-30 04:01 31.50845 29.43487 34061 ft 433 kts 304°
2026-04-30 04:01 31.54378 29.37764 34064 ft 433 kts 304°
2026-04-30 04:02 31.57902 29.32047 34067 ft 433 kts 304°
2026-04-30 04:02 31.61430 29.26320 34067 ft 433 kts 304°
2026-04-30 04:03 31.64940 29.20585 34075 ft 432 kts 304°
2026-04-30 04:03 31.68445 29.14850 34100 ft 432 kts 304°
2026-04-30 04:04 31.71984 29.09155 34073 ft 431 kts 308°
2026-04-30 04:04 31.76259 29.04190 34076 ft 434 kts 316°
2026-04-30 04:05 31.80865 28.99671 34081 ft 435 kts 318°
2026-04-30 04:05 31.85559 28.95186 34075 ft 435 kts 318°
2026-04-30 04:06 31.90255 28.90688 34075 ft 435 kts 318°
2026-04-30 04:06 31.94939 28.86172 34075 ft 435 kts 317°
2026-04-30 04:07 31.99614 28.81649 34075 ft 435 kts 317°
2026-04-30 04:08 32.06587 28.74890 34080 ft 433 kts 317°
2026-04-30 04:08 32.11238 28.70375 34078 ft 433 kts 317°
2026-04-30 04:09 32.15893 28.65849 34069 ft 433 kts 317°
2026-04-30 04:09 32.20545 28.61321 34075 ft 433 kts 317°
2026-04-30 04:10 32.25226 28.56758 34075 ft 433 kts 317°
2026-04-30 04:10 32.29874 28.52221 34075 ft 433 kts 317°
2026-04-30 04:11 32.34523 28.47677 34083 ft 433 kts 317°
2026-04-30 04:11 32.39162 28.43138 34078 ft 432 kts 317°
2026-04-30 04:12 32.43796 28.38595 34075 ft 432 kts 317°
2026-04-30 04:12 32.48427 28.34050 34072 ft 433 kts 317°
2026-04-30 04:13 32.53062 28.29495 34075 ft 433 kts 317°
2026-04-30 04:13 32.57698 28.24932 34072 ft 433 kts 317°
2026-04-30 04:14 32.62303 28.20393 34072 ft 433 kts 317°
2026-04-30 04:14 32.66936 28.15822 34072 ft 433 kts 317°
2026-04-30 04:15 32.71569 28.11242 34073 ft 433 kts 317°
2026-04-30 04:15 32.76195 28.06664 34081 ft 433 kts 317°
2026-04-30 04:16 32.80825 28.02075 34072 ft 433 kts 317°
2026-04-30 04:16 32.85456 27.97479 34072 ft 433 kts 317°
2026-04-30 04:17 32.90081 27.92883 34072 ft 433 kts 317°
2026-04-30 04:17 32.94708 27.88278 34086 ft 433 kts 317°
2026-04-30 04:18 32.99295 27.83706 34071 ft 433 kts 317°
2026-04-30 04:18 33.03911 27.79100 34074 ft 432 kts 317°
2026-04-30 04:19 33.08521 27.74492 34069 ft 432 kts 317°
2026-04-30 04:19 33.13135 27.69873 34070 ft 433 kts 317°
2026-04-30 04:20 33.17744 27.65254 34075 ft 433 kts 317°
2026-04-30 04:20 33.22350 27.60631 34069 ft 433 kts 317°
2026-04-30 04:21 33.26956 27.56001 34087 ft 433 kts 316°
2026-04-30 04:21 33.31565 27.51361 34073 ft 433 kts 316°
2026-04-30 04:22 33.36143 27.46746 34070 ft 433 kts 316°
2026-04-30 04:22 33.40752 27.42093 34070 ft 434 kts 316°
2026-04-30 04:23 33.45368 27.37427 34071 ft 434 kts 316°
2026-04-30 04:23 33.49978 27.32760 34070 ft 434 kts 316°
2026-04-30 04:24 33.54593 27.28081 34070 ft 434 kts 316°
2026-04-30 04:24 33.59204 27.23399 34076 ft 434 kts 316°
2026-04-30 04:25 33.63815 27.18710 34068 ft 435 kts 316°
2026-04-30 04:25 33.68428 27.14013 34068 ft 435 kts 316°
2026-04-30 04:26 33.73043 27.09307 34056 ft 435 kts 316°
2026-04-30 04:26 33.77658 27.04594 34071 ft 435 kts 316°
2026-04-30 04:27 33.82263 26.99885 34068 ft 435 kts 316°
2026-04-30 04:27 33.86867 26.95168 34050 ft 435 kts 316°
2026-04-30 04:28 33.91445 26.90472 34064 ft 435 kts 316°
2026-04-30 04:28 33.96044 26.85748 34060 ft 435 kts 316°
2026-04-30 04:29 34.00645 26.81017 34064 ft 435 kts 316°
2026-04-30 04:29 34.05394 26.76489 34063 ft 436 kts 320°
2026-04-30 04:30 34.10251 26.72090 34066 ft 436 kts 320°
2026-04-30 04:30 34.15086 26.67668 34065 ft 436 kts 319°
2026-04-30 04:31 34.19090 26.63959 34088 ft 436 kts 319°
2026-04-30 04:31 34.23892 26.59481 34062 ft 436 kts 319°
2026-04-30 04:32 34.28698 26.54991 34061 ft 436 kts 319°
2026-04-30 04:32 34.33500 26.50501 34059 ft 437 kts 319°
2026-04-30 04:33 34.38311 26.45998 34059 ft 437 kts 319°
2026-04-30 04:33 34.43116 26.41493 34058 ft 437 kts 319°
2026-04-30 04:34 34.47921 26.36982 34056 ft 437 kts 319°
2026-04-30 04:34 34.52728 26.32461 34056 ft 437 kts 319°
2026-04-30 04:35 34.57543 26.27926 34053 ft 438 kts 319°
2026-04-30 04:35 34.62323 26.23418 34050 ft 438 kts 319°
2026-04-30 04:36 34.67127 26.18881 34050 ft 437 kts 319°
2026-04-30 04:36 34.71934 26.14333 34050 ft 437 kts 319°
2026-04-30 04:37 34.76737 26.09782 34047 ft 437 kts 319°
2026-04-30 04:37 34.81539 26.05225 34054 ft 439 kts 319°
2026-04-30 04:38 34.86361 26.00642 34050 ft 440 kts 319°
2026-04-30 04:38 34.91195 25.96041 34048 ft 440 kts 319°
2026-04-30 04:39 34.95987 25.91474 34048 ft 440 kts 319°
2026-04-30 04:39 35.00812 25.86869 34049 ft 440 kts 319°
2026-04-30 04:40 35.05629 25.82263 34047 ft 440 kts 319°
2026-04-30 04:40 35.10452 25.77645 34044 ft 441 kts 319°
2026-04-30 04:41 35.15282 25.72998 34045 ft 443 kts 319°
2026-04-30 04:41 35.20116 25.68321 34045 ft 443 kts 319°
2026-04-30 04:42 35.24952 25.63657 34043 ft 443 kts 319°
2026-04-30 04:42 35.29796 25.58991 34043 ft 444 kts 319°
2026-04-30 04:43 35.34613 25.54344 34042 ft 444 kts 319°
2026-04-30 04:43 35.39459 25.49661 34048 ft 444 kts 319°
2026-04-30 04:44 35.44312 25.44963 34045 ft 445 kts 319°
2026-04-30 04:44 35.49177 25.40247 34045 ft 445 kts 319°
2026-04-30 04:45 35.54037 25.35529 34045 ft 445 kts 319°
2026-04-30 04:45 35.58897 25.30802 34056 ft 445 kts 319°
2026-04-30 04:46 35.63755 25.26070 34053 ft 445 kts 319°
2026-04-30 04:46 35.68609 25.21335 34049 ft 445 kts 319°
2026-04-30 04:47 35.73464 25.16591 34053 ft 445 kts 319°
2026-04-30 04:47 35.78315 25.11843 34053 ft 445 kts 319°
2026-04-30 04:48 35.83162 25.07091 34053 ft 445 kts 319°
2026-04-30 04:48 35.88009 25.02332 34053 ft 445 kts 319°
2026-04-30 04:49 35.92856 24.97566 34050 ft 446 kts 319°
2026-04-30 04:49 35.97707 24.92787 34060 ft 447 kts 319°
2026-04-30 04:50 36.02574 24.87984 34059 ft 448 kts 319°
2026-04-30 04:50 36.07447 24.83170 34061 ft 448 kts 319°
2026-04-30 04:51 36.12289 24.78375 34060 ft 448 kts 319°
2026-04-30 04:51 36.17155 24.73545 34062 ft 448 kts 319°
2026-04-30 04:52 36.22023 24.68707 34060 ft 448 kts 319°
2026-04-30 04:52 36.26888 24.63864 34060 ft 449 kts 319°
2026-04-30 04:53 36.31756 24.59010 34059 ft 449 kts 319°
2026-04-30 04:53 36.36629 24.54145 34060 ft 450 kts 319°
2026-04-30 04:54 36.41504 24.49269 34057 ft 450 kts 319°
2026-04-30 04:54 36.46370 24.44394 34058 ft 449 kts 319°
2026-04-30 04:55 36.51240 24.39501 34062 ft 449 kts 319°
2026-04-30 04:55 36.56076 24.34641 34057 ft 451 kts 319°
2026-04-30 04:56 36.60989 24.29695 34055 ft 452 kts 319°
2026-04-30 04:56 36.65836 24.24807 34060 ft 452 kts 319°
2026-04-30 04:57 36.70719 24.19873 34060 ft 452 kts 319°
2026-04-30 04:57 36.75600 24.14933 34059 ft 452 kts 319°
2026-04-30 04:58 36.80479 24.09986 34055 ft 452 kts 319°
2026-04-30 04:58 36.85358 24.05031 34055 ft 452 kts 319°
2026-04-30 04:59 36.90239 24.00067 34056 ft 452 kts 319°
2026-04-30 04:59 36.95153 23.95058 34056 ft 453 kts 319°
2026-04-30 05:00 37.00003 23.90116 34057 ft 453 kts 319°
2026-04-30 05:00 37.04885 23.85135 34059 ft 452 kts 319°
2026-04-30 05:01 37.09762 23.80147 34057 ft 452 kts 319°
2026-04-30 05:01 37.14634 23.75153 34053 ft 453 kts 319°
2026-04-30 05:02 37.19505 23.70154 34053 ft 452 kts 318°
2026-04-30 05:02 37.24374 23.65147 34050 ft 452 kts 318°
2026-04-30 05:03 37.29235 23.60139 34053 ft 452 kts 318°
2026-04-30 05:03 37.34094 23.55126 34050 ft 452 kts 318°
2026-04-30 05:04 37.38960 23.50095 34074 ft 452 kts 318°
2026-04-30 05:04 37.43817 23.45067 34054 ft 452 kts 318°
2026-04-30 05:05 37.48675 23.40028 34050 ft 452 kts 318°
2026-04-30 05:05 37.53494 23.35021 34054 ft 452 kts 318°
2026-04-30 05:06 37.60773 23.27443 34053 ft 452 kts 318°
2026-04-30 05:06 37.65622 23.22383 34059 ft 452 kts 318°
2026-04-30 05:07 37.70501 23.17283 34056 ft 453 kts 318°
2026-04-30 05:07 37.75386 23.12167 34058 ft 453 kts 318°
2026-04-30 05:08 37.80241 23.07072 34063 ft 453 kts 318°
2026-04-30 05:08 37.85059 23.02011 34061 ft 453 kts 318°
2026-04-30 05:09 37.89904 22.96910 34064 ft 453 kts 318°
2026-04-30 05:09 37.94743 22.91783 34063 ft 453 kts 316°
2026-04-30 05:10 37.99401 22.86410 34064 ft 453 kts 315°
2026-04-30 05:10 38.03999 22.80939 34064 ft 453 kts 315°
2026-04-30 05:11 38.08626 22.75486 34066 ft 453 kts 315°
2026-04-30 05:11 38.12515 22.70937 34067 ft 453 kts 315°
2026-04-30 05:12 38.17166 22.65532 34067 ft 453 kts 315°
2026-04-30 05:12 38.21820 22.60124 34067 ft 453 kts 315°
2026-04-30 05:13 38.26471 22.54706 34070 ft 453 kts 315°
2026-04-30 05:13 38.31119 22.49276 34069 ft 453 kts 315°
2026-04-30 05:14 38.35762 22.43843 34069 ft 453 kts 315°
2026-04-30 05:14 38.40394 22.38413 34070 ft 452 kts 315°
2026-04-30 05:15 38.45018 22.32980 34070 ft 452 kts 315°
2026-04-30 05:15 38.49644 22.27538 34080 ft 452 kts 315°
2026-04-30 05:16 38.54272 22.22083 34071 ft 452 kts 315°
2026-04-30 05:16 38.58887 22.16628 34068 ft 452 kts 315°
2026-04-30 05:17 38.63507 22.11156 34085 ft 452 kts 315°
2026-04-30 05:17 38.68120 22.05684 34090 ft 452 kts 315°
2026-04-30 05:18 38.72732 22.00202 34089 ft 452 kts 315°
2026-04-30 05:18 38.77344 21.94710 34087 ft 452 kts 315°
2026-04-30 05:19 38.81919 21.89252 34093 ft 452 kts 315°
2026-04-30 05:19 38.86528 21.83742 34098 ft 452 kts 315°
2026-04-30 05:20 38.91128 21.78231 34078 ft 452 kts 315°
2026-04-30 05:20 38.95731 21.72708 34099 ft 453 kts 315°
2026-04-30 05:21 39.00327 21.67184 34096 ft 452 kts 315°
2026-04-30 05:21 39.04923 21.61650 34095 ft 452 kts 315°
2026-04-30 05:22 39.09523 21.56101 34099 ft 452 kts 314°
2026-04-30 05:22 39.14111 21.50553 34089 ft 452 kts 314°
2026-04-30 05:23 39.18670 21.45033 34091 ft 452 kts 314°
2026-04-30 05:23 39.23260 21.39466 34106 ft 452 kts 314°
2026-04-30 05:24 39.27842 21.33896 34088 ft 452 kts 314°
2026-04-30 05:24 39.32420 21.28320 34091 ft 452 kts 314°
2026-04-30 05:25 39.36998 21.22734 34100 ft 452 kts 314°
2026-04-30 05:25 39.41562 21.17156 34088 ft 451 kts 314°
2026-04-30 05:26 39.46117 21.11576 34090 ft 451 kts 314°
2026-04-30 05:26 39.50641 21.06024 34098 ft 451 kts 314°
2026-04-30 05:27 39.55200 21.00418 34109 ft 451 kts 314°
2026-04-30 05:27 39.59751 20.94814 34123 ft 451 kts 314°
2026-04-30 05:28 39.64304 20.89195 34146 ft 451 kts 314°
2026-04-30 05:28 39.68848 20.83598 34126 ft 450 kts 315°
2026-04-30 05:29 39.73794 20.78557 34128 ft 452 kts 320°
2026-04-30 05:29 39.78870 20.73727 34128 ft 452 kts 321°
2026-04-30 05:30 39.83964 20.68927 34112 ft 452 kts 321°
2026-04-30 05:30 39.89059 20.64109 34099 ft 452 kts 321°
2026-04-30 05:31 39.94097 20.59329 34078 ft 450 kts 321°
2026-04-30 05:31 39.99151 20.54518 34077 ft 450 kts 321°
2026-04-30 05:32 40.04199 20.49701 34080 ft 450 kts 321°
2026-04-30 05:32 40.09279 20.44846 34077 ft 450 kts 321°
2026-04-30 05:33 40.14290 20.40021 34073 ft 450 kts 320°
2026-04-30 05:33 40.19328 20.35154 34075 ft 450 kts 320°
2026-04-30 05:34 40.24358 20.30288 34072 ft 449 kts 320°
2026-04-30 05:34 40.29389 20.25417 34071 ft 450 kts 320°
2026-04-30 05:35 40.34420 20.20536 34067 ft 450 kts 320°
2026-04-30 05:35 40.39450 20.15649 34060 ft 450 kts 320°
2026-04-30 05:36 40.44488 20.10742 34048 ft 451 kts 320°
2026-04-30 05:36 40.49508 20.05844 34043 ft 453 kts 320°
2026-04-30 05:37 40.54563 20.00905 34041 ft 452 kts 320°
2026-04-30 05:37 40.59607 19.95964 34042 ft 452 kts 320°
2026-04-30 05:38 40.64652 19.91014 34033 ft 453 kts 320°
2026-04-30 05:38 40.69697 19.86056 34041 ft 452 kts 320°
2026-04-30 05:39 40.74733 19.81095 34036 ft 452 kts 320°
2026-04-30 05:39 40.79764 19.76130 34036 ft 451 kts 320°
2026-04-30 05:40 40.84790 19.71159 34040 ft 451 kts 320°
2026-04-30 05:40 40.89814 19.66182 34042 ft 451 kts 320°
2026-04-30 05:41 40.94827 19.61206 34041 ft 449 kts 320°
2026-04-30 05:41 40.99816 19.56244 34040 ft 448 kts 320°
2026-04-30 05:42 41.04799 19.51278 34045 ft 448 kts 320°
2026-04-30 05:42 41.09783 19.46300 34046 ft 448 kts 320°
2026-04-30 05:43 41.14766 19.41315 34045 ft 448 kts 320°
2026-04-30 05:43 41.19713 19.36357 34045 ft 448 kts 320°
2026-04-30 05:44 41.24689 19.31359 34048 ft 448 kts 320°
2026-04-30 05:44 41.29660 19.26357 34048 ft 448 kts 320°
2026-04-30 05:45 41.34629 19.21347 34046 ft 448 kts 320°
2026-04-30 05:45 41.39596 19.16330 34063 ft 448 kts 320°
2026-04-30 05:46 41.44587 19.11279 34048 ft 446 kts 320°
2026-04-30 05:46 41.49512 19.06276 34051 ft 444 kts 320°
2026-04-30 05:47 41.54411 19.01264 34053 ft 444 kts 319°
2026-04-30 05:47 41.59305 18.96244 34050 ft 444 kts 319°
2026-04-30 05:48 41.64173 18.91247 34048 ft 444 kts 319°
2026-04-30 05:48 41.69046 18.86241 34046 ft 439 kts 319°
2026-04-30 05:49 41.73868 18.81275 34045 ft 437 kts 319°
2026-04-30 05:49 41.78676 18.76311 34043 ft 436 kts 319°
2026-04-30 05:50 41.83473 18.71351 34048 ft 435 kts 319°
2026-04-30 05:50 41.88262 18.66388 34045 ft 434 kts 319°
2026-04-30 05:51 41.93034 18.61436 34047 ft 432 kts 318°
2026-04-30 05:51 41.97779 18.56501 34045 ft 431 kts 318°
2026-04-30 05:52 42.02270 18.51225 34049 ft 427 kts 310°
2026-04-30 05:52 42.06211 18.45327 34047 ft 426 kts 308°
2026-04-30 05:53 42.10085 18.39288 34052 ft 427 kts 308°
2026-04-30 05:53 42.13324 18.34203 34053 ft 427 kts 308°
2026-04-30 05:54 42.17807 18.27177 34061 ft 423 kts 308°
2026-04-30 05:54 42.21636 18.21179 34067 ft 421 kts 308°
2026-04-30 05:55 42.24835 18.16160 34048 ft 421 kts 308°
2026-04-30 05:55 42.28648 18.10166 34052 ft 421 kts 308°
2026-04-30 05:56 42.32464 18.04155 34057 ft 421 kts 308°
2026-04-30 05:56 42.36267 17.98150 34056 ft 421 kts 308°
2026-04-30 05:57 42.40073 17.92129 34069 ft 421 kts 308°
2026-04-30 05:57 42.43841 17.86158 34068 ft 419 kts 307°
2026-04-30 05:58 42.47616 17.80165 34067 ft 417 kts 307°
2026-04-30 05:58 42.51380 17.74173 34059 ft 417 kts 307°
2026-04-30 05:59 42.55149 17.68159 34075 ft 419 kts 307°
2026-04-30 05:59 42.58923 17.62129 34075 ft 419 kts 307°
2026-04-30 06:00 42.62696 17.56089 34089 ft 419 kts 307°
2026-04-30 06:00 42.66464 17.50047 34089 ft 419 kts 307°
2026-04-30 06:01 42.70224 17.44004 34090 ft 418 kts 306°
2026-04-30 06:01 42.73978 17.37954 34087 ft 418 kts 306°
2026-04-30 06:02 42.77735 17.31882 34100 ft 420 kts 306°
2026-04-30 06:02 42.81473 17.25833 34100 ft 420 kts 306°
2026-04-30 06:03 42.85231 17.19741 34101 ft 420 kts 306°
2026-04-30 06:03 42.88986 17.13642 34099 ft 420 kts 306°
2026-04-30 06:04 42.92738 17.07535 34105 ft 420 kts 306°
2026-04-30 06:05 42.98355 16.98367 34107 ft 419 kts 306°
2026-04-30 06:05 43.02092 16.92250 34104 ft 419 kts 306°
2026-04-30 06:06 43.05826 16.86128 34116 ft 419 kts 306°
2026-04-30 06:06 43.09559 16.79994 34117 ft 419 kts 306°
2026-04-30 06:07 43.13289 16.73852 34112 ft 419 kts 306°
2026-04-30 06:07 43.17015 16.67703 34123 ft 419 kts 306°
2026-04-30 06:08 43.20736 16.61552 34130 ft 419 kts 305°
2026-04-30 06:08 43.24445 16.55404 34120 ft 418 kts 305°
2026-04-30 06:09 43.28148 16.49252 34130 ft 418 kts 305°
2026-04-30 06:09 43.31849 16.43090 34125 ft 418 kts 305°
2026-04-30 06:10 43.35549 16.36921 34130 ft 418 kts 305°
2026-04-30 06:10 43.39245 16.30744 34129 ft 419 kts 305°
2026-04-30 06:11 43.42941 16.24555 34131 ft 419 kts 305°
2026-04-30 06:11 43.46635 16.18356 34149 ft 419 kts 305°
2026-04-30 06:12 43.50326 16.12149 34120 ft 419 kts 305°
2026-04-30 06:12 43.54015 16.05933 34141 ft 419 kts 305°
2026-04-30 06:13 43.57700 15.99708 34124 ft 419 kts 305°
2026-04-30 06:13 43.61381 15.93473 34132 ft 419 kts 305°
2026-04-30 06:14 43.65063 15.87227 34135 ft 419 kts 305°
2026-04-30 06:14 43.68742 15.80974 34138 ft 419 kts 305°
2026-04-30 06:15 43.72416 15.74715 34143 ft 419 kts 305°
2026-04-30 06:15 43.76089 15.68444 34149 ft 419 kts 305°
2026-04-30 06:16 43.79756 15.62169 34150 ft 419 kts 305°
2026-04-30 06:16 43.83425 15.55877 34155 ft 420 kts 305°
2026-04-30 06:17 43.87098 15.49565 34167 ft 421 kts 305°
2026-04-30 06:17 43.90769 15.43244 34168 ft 421 kts 305°
2026-04-30 06:18 43.94437 15.36912 34174 ft 421 kts 305°
2026-04-30 06:18 43.98103 15.30569 34181 ft 423 kts 305°
2026-04-30 06:19 44.01797 15.24164 34176 ft 425 kts 305°
2026-04-30 06:19 44.05490 15.17749 34193 ft 425 kts 305°
2026-04-30 06:20 44.09184 15.11318 34184 ft 425 kts 305°
2026-04-30 06:20 44.12870 15.04886 34182 ft 425 kts 305°
2026-04-30 06:21 44.16550 14.98446 34180 ft 425 kts 306°
2026-04-30 06:21 44.20244 14.91970 34194 ft 428 kts 306°
2026-04-30 06:22 44.23955 14.85449 34194 ft 432 kts 306°
2026-04-30 06:22 44.27697 14.78860 34189 ft 434 kts 306°
2026-04-30 06:23 44.31439 14.72258 34195 ft 434 kts 306°
2026-04-30 06:23 44.35181 14.65640 34196 ft 434 kts 306°
2026-04-30 06:24 44.38894 14.59057 34201 ft 434 kts 306°
2026-04-30 06:24 44.42625 14.52424 34212 ft 434 kts 306°
2026-04-30 06:25 44.46351 14.45788 34234 ft 434 kts 306°
2026-04-30 06:25 44.50120 14.39055 34206 ft 439 kts 307°
2026-04-30 06:26 44.53900 14.32287 34210 ft 441 kts 307°
2026-04-30 06:26 44.57685 14.25501 34219 ft 441 kts 307°
2026-04-30 06:27 44.61461 14.18712 34222 ft 441 kts 306°
2026-04-30 06:27 44.65213 14.11949 34225 ft 441 kts 306°
2026-04-30 06:28 44.68985 14.05134 34233 ft 442 kts 307°
2026-04-30 06:28 44.72756 13.98304 34244 ft 443 kts 307°
2026-04-30 06:29 44.76538 13.91439 34238 ft 445 kts 307°
2026-04-30 06:29 44.80328 13.84543 34238 ft 445 kts 307°
2026-04-30 06:30 44.84110 13.77644 34230 ft 445 kts 307°
2026-04-30 06:30 44.87892 13.70729 34238 ft 445 kts 307°
2026-04-30 06:31 44.91672 13.63802 34241 ft 446 kts 307°
2026-04-30 06:31 44.95445 13.56869 34242 ft 446 kts 307°
2026-04-30 06:32 44.99225 13.49904 34254 ft 448 kts 307°
2026-04-30 06:32 45.03022 13.42894 34260 ft 450 kts 307°
2026-04-30 06:33 45.06822 13.35861 34259 ft 450 kts 307°
2026-04-30 06:33 45.09982 13.30001 34270 ft 450 kts 307°
2026-04-30 06:34 45.13780 13.22940 34267 ft 450 kts 307°
2026-04-30 06:34 45.17569 13.15877 34267 ft 450 kts 307°
2026-04-30 06:35 45.21361 13.08791 34265 ft 451 kts 307°
2026-04-30 06:35 45.25159 13.01680 34277 ft 452 kts 308°
2026-04-30 06:36 45.29022 12.94656 34277 ft 450 kts 310°
2026-04-30 06:36 45.33105 12.87891 34275 ft 452 kts 311°
2026-04-30 06:37 45.37219 12.81103 34275 ft 454 kts 311°
2026-04-30 06:37 45.41306 12.74246 34280 ft 455 kts 310°
2026-04-30 06:38 45.45374 12.67346 34290 ft 454 kts 310°
2026-04-30 06:38 45.49423 12.60452 34286 ft 457 kts 310°
2026-04-30 06:39 45.53530 12.53454 34291 ft 461 kts 310°
2026-04-30 06:39 45.57644 12.46426 34291 ft 461 kts 310°
2026-04-30 06:40 45.61753 12.39389 34291 ft 461 kts 310°
2026-04-30 06:40 45.65859 12.32338 34293 ft 461 kts 310°
2026-04-30 06:41 45.69960 12.25277 34293 ft 461 kts 310°
2026-04-30 06:41 45.74063 12.18193 34273 ft 466 kts 311°
2026-04-30 06:42 45.78186 12.11062 34279 ft 468 kts 311°
2026-04-30 06:42 45.82361 12.03821 34273 ft 468 kts 311°
2026-04-30 06:43 45.86482 11.96654 34277 ft 468 kts 311°
2026-04-30 06:43 45.90650 11.89384 34243 ft 468 kts 311°
2026-04-30 06:44 45.94763 11.82194 34268 ft 468 kts 311°
2026-04-30 06:44 45.98904 11.74936 34269 ft 471 kts 311°
2026-04-30 06:45 46.03067 11.67621 34270 ft 473 kts 311°
2026-04-30 06:45 46.07225 11.60295 34261 ft 473 kts 311°
2026-04-30 06:46 46.11386 11.52942 34261 ft 473 kts 311°
2026-04-30 06:46 46.15543 11.45577 34247 ft 473 kts 311°
2026-04-30 06:47 46.19692 11.38208 34232 ft 473 kts 311°
2026-04-30 06:47 46.23836 11.30829 34230 ft 473 kts 311°
2026-04-30 06:48 46.27974 11.23440 34225 ft 473 kts 311°
2026-04-30 06:48 46.32112 11.16032 34238 ft 474 kts 311°
2026-04-30 06:49 46.36247 11.08611 34238 ft 474 kts 311°
2026-04-30 06:49 46.40379 11.01172 34235 ft 474 kts 311°
2026-04-30 06:50 46.44479 10.93777 34215 ft 474 kts 311°
2026-04-30 06:50 46.48602 10.86309 34215 ft 475 kts 311°
2026-04-30 06:51 46.52739 10.78803 34214 ft 476 kts 311°
2026-04-30 06:51 46.56870 10.71291 34223 ft 476 kts 311°
2026-04-30 06:52 46.61003 10.63754 34216 ft 476 kts 311°
2026-04-30 06:52 46.65127 10.56208 34210 ft 476 kts 311°
2026-04-30 06:53 46.69247 10.48650 34219 ft 477 kts 311°
2026-04-30 06:53 46.73243 10.40823 34234 ft 481 kts 304°
2026-04-30 06:54 46.76180 10.32000 34234 ft 485 kts 297°
2026-04-30 06:54 46.78807 10.22937 34232 ft 486 kts 296°
2026-04-30 06:55 46.81386 10.13813 34228 ft 486 kts 296°
2026-04-30 06:55 46.83975 10.04680 34225 ft 487 kts 296°
2026-04-30 06:56 46.86554 9.95602 34212 ft 487 kts 296°
2026-04-30 06:56 46.89137 9.86455 34213 ft 487 kts 296°
2026-04-30 06:57 46.91722 9.77305 34194 ft 488 kts 296°
2026-04-30 06:57 46.94319 9.68110 34199 ft 489 kts 296°
2026-04-30 06:58 46.96933 9.58783 34196 ft 489 kts 296°
2026-04-30 06:58 46.99489 9.49623 34208 ft 489 kts 296°
2026-04-30 06:59 47.02057 9.40387 34197 ft 490 kts 296°
2026-04-30 06:59 47.04625 9.31115 34197 ft 491 kts 296°
2026-04-30 07:00 47.07188 9.21827 34199 ft 491 kts 296°
2026-04-30 07:00 47.09743 9.12530 34198 ft 491 kts 296°
2026-04-30 07:01 47.12292 9.03219 34215 ft 492 kts 295°
2026-04-30 07:01 47.14837 8.93890 34215 ft 492 kts 295°
2026-04-30 07:02 47.17345 8.84536 34236 ft 492 kts 294°
2026-04-30 07:02 47.19735 8.75085 34252 ft 493 kts 294°
2026-04-30 07:03 47.22112 8.65590 34250 ft 493 kts 294°
2026-04-30 07:03 47.24494 8.56120 34260 ft 494 kts 294°
2026-04-30 07:04 47.26869 8.46694 34259 ft 493 kts 294°
2026-04-30 07:04 47.29266 8.37182 34246 ft 494 kts 294°
2026-04-30 07:05 47.32843 8.22903 34245 ft 499 kts 294°
2026-04-30 07:05 47.35232 8.13249 34586 ft 501 kts 293°
2026-04-30 07:06 47.36417 8.08443 35151 ft 496 kts 293°
2026-04-30 07:06 47.37584 8.03699 35731 ft 490 kts 293°
2026-04-30 07:06 47.38741 7.98990 36255 ft 486 kts 292°
2026-04-30 07:06 47.39888 7.94318 36676 ft 484 kts 293°
2026-04-30 07:07 47.41031 7.89659 37100 ft 481 kts 292°
2026-04-30 07:07 47.42165 7.85024 37535 ft 479 kts 292°
2026-04-30 07:07 47.43290 7.80414 37958 ft 476 kts 292°
2026-04-30 07:07 47.44410 7.75822 38228 ft 476 kts 292°
2026-04-30 07:08 47.46579 7.66587 38262 ft 476 kts 288°
2026-04-30 07:08 47.48268 7.57117 38260 ft 477 kts 286°
2026-04-30 07:09 47.49863 7.47588 38248 ft 478 kts 286°
2026-04-30 07:09 47.51441 7.38009 38249 ft 480 kts 286°
2026-04-30 07:10 47.52753 7.30035 38241 ft 480 kts 286°
2026-04-30 07:10 47.54330 7.20434 38234 ft 480 kts 285°
2026-04-30 07:11 47.55911 7.10766 38225 ft 480 kts 285°
2026-04-30 07:11 47.57474 7.01158 38214 ft 479 kts 285°
2026-04-30 07:12 47.59026 6.91561 38212 ft 479 kts 285°
2026-04-30 07:12 47.60569 6.81950 38210 ft 480 kts 286°
2026-04-30 07:13 47.62106 6.72330 38211 ft 480 kts 285°
2026-04-30 07:13 47.63641 6.62690 38201 ft 481 kts 285°
2026-04-30 07:14 47.65165 6.53038 38199 ft 481 kts 285°
2026-04-30 07:14 47.66682 6.43378 38208 ft 481 kts 285°
2026-04-30 07:15 47.68193 6.33704 38208 ft 481 kts 285°
2026-04-30 07:15 47.69791 6.24065 38207 ft 481 kts 288°
2026-04-30 07:16 47.71849 6.14604 38201 ft 481 kts 290°
2026-04-30 07:16 47.73972 6.05173 38195 ft 482 kts 290°
2026-04-30 07:17 47.76022 5.95694 38187 ft 482 kts 289°
2026-04-30 07:18 47.79018 5.81406 38174 ft 485 kts 289°
2026-04-30 07:18 47.81012 5.71810 38170 ft 486 kts 289°
2026-04-30 07:19 47.83003 5.62197 38167 ft 486 kts 289°
2026-04-30 07:19 47.84986 5.52583 38175 ft 486 kts 289°
2026-04-30 07:20 47.86966 5.42943 38173 ft 488 kts 288°
2026-04-30 07:20 47.88945 5.33260 38171 ft 489 kts 288°
2026-04-30 07:21 47.91687 5.24065 38166 ft 484 kts 305°
2026-04-30 07:21 47.95842 5.16245 38171 ft 481 kts 313°
2026-04-30 07:22 48.02588 5.05140 38167 ft 482 kts 315°
2026-04-30 07:22 48.07145 4.97678 38169 ft 483 kts 314°
2026-04-30 07:23 48.11647 4.90218 38167 ft 483 kts 314°
2026-04-30 07:23 48.16136 4.82745 38172 ft 482 kts 314°
2026-04-30 07:24 48.20618 4.75263 38170 ft 482 kts 314°
2026-04-30 07:24 48.25094 4.67768 38177 ft 483 kts 313°
2026-04-30 07:25 48.29585 4.60221 38179 ft 486 kts 314°
2026-04-30 07:25 48.34084 4.52637 38183 ft 486 kts 314°
2026-04-30 07:26 48.38588 4.45049 38185 ft 485 kts 313°
2026-04-30 07:26 48.43098 4.37399 38187 ft 485 kts 314°
2026-04-30 07:27 48.47544 4.29832 38180 ft 486 kts 314°
2026-04-30 07:27 48.52045 4.22175 38203 ft 490 kts 314°
2026-04-30 07:28 48.56558 4.14475 38203 ft 489 kts 314°
2026-04-30 07:28 48.61082 4.06721 38206 ft 487 kts 314°
2026-04-30 07:29 48.65555 3.99022 38205 ft 488 kts 313°
2026-04-30 07:29 48.69998 3.91362 38210 ft 487 kts 313°
2026-04-30 07:30 48.76885 3.80082 38209 ft 485 kts 318°
2026-04-30 07:31 48.81777 3.73024 38207 ft 486 kts 319°
2026-04-30 07:31 48.86656 3.65934 38207 ft 486 kts 318°
2026-04-30 07:32 48.91490 3.58747 38208 ft 486 kts 318°
2026-04-30 07:32 48.96312 3.51518 38208 ft 486 kts 317°
2026-04-30 07:33 49.01137 3.44244 38205 ft 491 kts 317°
2026-04-30 07:33 49.05988 3.36915 38208 ft 491 kts 316°
2026-04-30 07:34 49.10824 3.29590 38201 ft 490 kts 317°
2026-04-30 07:34 49.15658 3.22241 38206 ft 491 kts 316°
2026-04-30 07:35 49.20493 3.14877 38204 ft 491 kts 317°
2026-04-30 07:35 49.25335 3.07488 38204 ft 492 kts 316°
2026-04-30 07:36 49.30197 3.00042 38204 ft 494 kts 316°
2026-04-30 07:36 49.35046 2.92589 38207 ft 495 kts 316°
2026-04-30 07:37 49.39898 2.85111 38202 ft 493 kts 316°
2026-04-30 07:37 49.44724 2.77647 38204 ft 492 kts 317°
2026-04-30 07:38 49.49560 2.70153 38208 ft 494 kts 316°
2026-04-30 07:38 49.54373 2.62671 38210 ft 495 kts 316°
2026-04-30 07:39 49.59233 2.55114 38213 ft 497 kts 317°